| time (UTC) | temp F | wind direction | speed knots | gust knots | rain 1hr in | rain 24hr in | rain mn in | humidity % | barometer mb |
| 20260507105339 | 62 | 92 | 5.2 | 8.7 | 0.01 | 0.38 | 0.13 | 67 | 1013.8 |
| 20260507104702 | 62 | 77 | 3.5 | 8.7 | 0.01 | 0.38 | 0.13 | 67 | 1013.7 |
| 20260507104653 | 62 | 90 | 3.5 | 8.7 | 0.01 | 0.38 | 0.13 | 67 | 1013.7 |
| 20260507104511 | 62 | 83 | 5.2 | 8.7 | 0.01 | 0.38 | 0.13 | 67 | 1013.8 |
| 20260507104059 | 62 | 109 | 6.1 | 9.6 | 0.01 | 0.38 | 0.13 | 69 | 1013.8 |
| 20260507103912 | 62 | 59 | 3.5 | 9.6 | 0.01 | 0.38 | 0.13 | 69 | 1013.8 |
| 20260507103651 | 62 | 74 | 6.1 | 9.6 | 0.01 | 0.38 | 0.13 | 69 | 1013.8 |
| 20260507103502 | 61 | 90 | 4.3 | 9.6 | 0.01 | 0.38 | 0.13 | 68 | 1013.9 |
| 20260507103318 | 61 | 77 | 3.5 | 7.8 | 0.01 | 0.38 | 0.13 | 68 | 1013.9 |
| 20260507103005 | 61 | 58 | 5.2 | 7.8 | 0.01 | 0.38 | 0.13 | 69 | 1013.8 |
| 20260507102828 | 61 | 115 | 2.6 | 7.8 | 0.01 | 0.39 | 0.13 | 69 | 1013.9 |
| 20260507102632 | 61 | 84 | 4.3 | 7.8 | 0.01 | 0.39 | 0.13 | 71 | 1013.9 |
| 20260507102451 | 61 | 116 | 5.2 | 7.8 | 0.01 | 0.39 | 0.13 | 75 | 1013.9 |
| 20260507102310 | 61 | 128 | 3.5 | 7.8 | 0.01 | 0.39 | 0.13 | 75 | 1013.9 |
| 20260507101949 | 60 | 78 | 3.5 | 7.8 | 0.01 | 0.39 | 0.13 | 75 | 1013.9 |
| 20260507101816 | 60 | 89 | 5.2 | 7.8 | 0.00 | 0.38 | 0.13 | 76 | 1014.0 |
| 20260507101623 | 60 | 59 | 2.6 | 7.8 | 0.00 | 0.38 | 0.13 | 76 | 1014.0 |
| 20260507101439 | 60 | 117 | 4.3 | 8.7 | 0.01 | 0.38 | 0.13 | 75 | 1014.0 |
| 20260507101255 | 60 | 91 | 4.3 | 8.7 | 0.01 | 0.38 | 0.13 | 75 | 1013.9 |
| 20260507100843 | 60 | 65 | 5.2 | 8.7 | 0.01 | 0.38 | 0.13 | 74 | 1013.9 |
| 20260507100701 | 60 | 93 | 5.2 | 8.7 | 0.01 | 0.38 | 0.13 | 76 | 1014.0 |
| 20260507100512 | 60 | 111 | 5.2 | 8.7 | 0.01 | 0.38 | 0.13 | 79 | 1013.9 |
| 20260507100331 | 60 | 77 | 5.2 | 8.7 | 0.01 | 0.38 | 0.13 | 78 | 1013.9 |
| 20260507100151 | 60 | 78 | 6.1 | 8.7 | 0.01 | 0.38 | 0.13 | 78 | 1014.0 |
| 20260507100059 | 60 | 92 | 4.3 | 8.7 | 0.01 | 0.38 | 0.13 | 79 | 1014.0 |
| 20260507100012 | 60 | 105 | 3.5 | 8.7 | 0.01 | 0.38 | 0.13 | 81 | 1014.0 |
| 20260507095828 | 60 | 113 | 3.5 | 7.8 | 0.01 | 0.39 | 0.13 | 80 | 1014.0 |
| 20260507095624 | 60 | 63 | 4.3 | 8.7 | 0.01 | 0.39 | 0.13 | 81 | 1014.0 |
| 20260507095442 | 59 | 74 | 3.5 | 8.7 | 0.01 | 0.39 | 0.13 | 82 | 1014.0 |
| 20260507095305 | 59 | 101 | 5.2 | 8.7 | 0.01 | 0.39 | 0.13 | 81 | 1014.0 |
| 20260507094823 | 59 | 61 | 5.2 | 8.7 | 0.01 | 0.39 | 0.13 | 83 | 1014.0 |
| 20260507094626 | 59 | 121 | 4.3 | 8.7 | 0.01 | 0.39 | 0.13 | 84 | 1014.0 |
| 20260507094444 | 59 | 124 | 5.2 | 8.7 | 0.01 | 0.39 | 0.13 | 83 | 1013.9 |
| 20260507094039 | 58 | 113 | 5.2 | 8.7 | 0.01 | 0.39 | 0.13 | 83 | 1014.0 |
| 20260507093945 | 58 | 57 | 6.1 | 8.7 | 0.01 | 0.39 | 0.13 | 83 | 1013.9 |
| 20260507093759 | 58 | 80 | 6.1 | 9.6 | 0.01 | 0.39 | 0.13 | 83 | 1013.9 |
| 20260507093610 | 58 | 103 | 3.5 | 9.6 | 0.01 | 0.39 | 0.13 | 85 | 1013.9 |
| 20260507093429 | 58 | 88 | 4.3 | 9.6 | 0.01 | 0.39 | 0.13 | 85 | 1014.0 |
| 20260507093246 | 58 | 68 | 4.3 | 9.6 | 0.01 | 0.39 | 0.13 | 84 | 1014.0 |
| 20260507092505 | 58 | 126 | 4.3 | 9.6 | 0.02 | 0.39 | 0.13 | 86 | 1014.0 |
| 20260507092320 | 58 | 117 | 6.1 | 9.6 | 0.02 | 0.39 | 0.13 | 86 | 1014.0 |
| 20260507092134 | 57 | 93 | 4.3 | 9.6 | 0.02 | 0.39 | 0.13 | 87 | 1013.9 |
| 20260507092035 | 57 | 70 | 5.2 | 9.6 | 0.02 | 0.39 | 0.13 | 87 | 1014.0 |
| 20260507091552 | 57 | 92 | 5.2 | 9.6 | 0.02 | 0.39 | 0.13 | 89 | 1014.0 |
| 20260507091400 | 57 | 61 | 3.5 | 7.8 | 0.01 | 0.39 | 0.13 | 90 | 1014.0 |
| 20260507090806 | 57 | 99 | 2.6 | 7.8 | 0.01 | 0.39 | 0.12 | 92 | 1014.2 |
| 20260507090707 | 57 | 121 | 0.9 | 7.0 | 0.01 | 0.39 | 0.12 | 93 | 1014.0 |
| 20260507090227 | 56 | 96 | 1.7 | 6.1 | 0.01 | 0.39 | 0.12 | 94 | 1014.1 |
| 20260507090021 | 56 | 72 | 0.9 | 6.1 | 0.01 | 0.39 | 0.12 | 94 | 1014.1 |
| 20260507085836 | 56 | 75 | 2.6 | 7.0 | 0.01 | 0.39 | 0.12 | 94 | 1014.1 |
| 20260507085335 | 56 | 77 | 4.3 | 7.0 | 0.01 | 0.39 | 0.12 | 95 | 1014.1 |
| 20260507085241 | 56 | 104 | 4.3 | 7.0 | 0.01 | 0.39 | 0.12 | 95 | 1014.1 |
| 20260507085104 | 56 | 114 | 1.7 | 7.0 | 0.01 | 0.39 | 0.12 | 95 | 1014.2 |
| 20260507084910 | 56 | 48 | 4.3 | 7.0 | 0.01 | 0.39 | 0.12 | 96 | 1014.1 |
| 20260507084727 | 55 | 71 | 2.6 | 7.0 | 0.01 | 0.39 | 0.12 | 96 | 1014.2 |
| 20260507084535 | 55 | 74 | 2.6 | 7.0 | 0.01 | 0.39 | 0.12 | 96 | 1014.1 |
| 20260507084439 | 55 | 57 | 1.7 | 7.0 | 0.02 | 0.39 | 0.12 | 97 | 1014.3 |
| 20260507084005 | 55 | 111 | 2.6 | 7.0 | 0.02 | 0.39 | 0.12 | 97 | 1014.2 |
| 20260507083551 | 55 | 113 | 3.5 | 7.0 | 0.02 | 0.39 | 0.12 | 97 | 1014.1 |
| 20260507083410 | 55 | 76 | 4.3 | 7.0 | 0.02 | 0.39 | 0.12 | 98 | 1014.2 |
| 20260507082914 | 55 | 67 | 1.7 | 6.1 | 0.02 | 0.39 | 0.12 | 98 | 1014.2 |
| 20260507082812 | 55 | 98 | 1.7 | 6.1 | 0.02 | 0.39 | 0.12 | 99 | 1014.1 |
| 20260507082624 | 54 | 125 | 2.6 | 6.1 | 0.02 | 0.39 | 0.12 | 98 | 1014.2 |
| 20260507082424 | 54 | 109 | 1.7 | 6.1 | 0.02 | 0.39 | 0.12 | 99 | 1014.1 |
| 20260507082245 | 54 | 98 | 3.5 | 6.1 | 0.02 | 0.39 | 0.12 | 98 | 1014.2 |
| 20260507082052 | 54 | 117 | 3.5 | 6.1 | 0.02 | 0.39 | 0.12 | 99 | 1014.2 |
| 20260507081956 | 54 | 111 | 3.5 | 6.1 | 0.02 | 0.39 | 0.12 | 99 | 1014.1 |
| 20260507081515 | 54 | 138 | 1.7 | 4.3 | 0.02 | 0.39 | 0.12 | 99 | 1014.2 |
| 20260507080712 | 54 | 79 | 1.7 | 3.5 | 0.01 | 0.39 | 0.11 | 99 | 1014.1 |
| 20260507080528 | 54 | 93 | 1.7 | 3.5 | 0.01 | 0.39 | 0.11 | 99 | 1014.1 |
| 20260507080428 | 54 | 117 | 1.7 | 2.6 | 0.01 | 0.39 | 0.11 | 99 | 1014.1 |
| 20260507080339 | 54 | 70 | 1.7 | 2.6 | 0.01 | 0.39 | 0.11 | 99 | 1014.1 |
| 20260507080200 | 54 | 77 | 0.9 | 2.6 | 0.01 | 0.39 | 0.11 | 100 | 1014.1 |
| 20260507080014 | 53 | 92 | 0.9 | 2.6 | 0.01 | 0.39 | 0.11 | 99 | 1014.1 |
| 20260507075859 | 53 | 98 | 1.7 | 3.5 | 0.01 | 0.39 | 0.11 | 99 | 1014.0 |
| 20260507075712 | 53 | 60 | 1.7 | 3.5 | 0.01 | 0.39 | 0.11 | 100 | 1014.1 |
| 20260507075340 | 53 | 46 | 0.9 | 3.5 | 0.02 | 0.39 | 0.11 | 99 | 1014.0 |
| 20260507075211 | 53 | 53 | 1.7 | 3.5 | 0.02 | 0.39 | 0.11 | 99 | 1014.0 |
| 20260507074757 | 53 | 55 | 1.7 | 3.5 | 0.02 | 0.39 | 0.11 | 99 | 1014.1 |
| 20260507074621 | 53 | 47 | 0.9 | 3.5 | 0.02 | 0.39 | 0.11 | 99 | 1014.0 |
| 20260507074144 | 52 | 146 | 0.0 | 3.5 | 0.02 | 0.39 | 0.11 | 99 | 1014.0 |
| 20260507074105 | 52 | 74 | 0.9 | 3.5 | 0.02 | 0.39 | 0.11 | 99 | 1014.0 |
| 20260507073555 | 52 | 114 | 1.7 | 3.5 | 0.02 | 0.39 | 0.11 | 99 | 1014.1 |
| 20260507073421 | 52 | 48 | 0.9 | 3.5 | 0.02 | 0.39 | 0.11 | 100 | 1014.1 |
| 20260507073250 | 52 | 84 | 1.7 | 3.5 | 0.02 | 0.39 | 0.11 | 99 | 1014.1 |
| 20260507073151 | 52 | 67 | 0.9 | 3.5 | 0.01 | 0.38 | 0.10 | 100 | 1014.1 |
| 20260507073057 | 51 | 72 | 0.9 | 2.6 | 0.01 | 0.38 | 0.10 | 100 | 1014.0 |
| 20260507072932 | 51 | 67 | 0.9 | 2.6 | 0.01 | 0.39 | 0.10 | 100 | 1014.0 |
| 20260507072746 | 51 | 98 | 0.0 | 2.6 | 0.01 | 0.39 | 0.10 | 99 | 1014.0 |
| 20260507072036 | 51 | 80 | 1.7 | 2.6 | 0.01 | 0.39 | 0.10 | 100 | 1014.1 |
| 20260507071951 | 51 | 81 | 1.7 | 2.6 | 0.01 | 0.39 | 0.10 | 100 | 1014.1 |
| 20260507071847 | 51 | 89 | 0.9 | 2.6 | 0.01 | 0.39 | 0.10 | 100 | 1014.1 |
| 20260507071311 | 50 | 82 | 0.0 | 2.6 | 0.01 | 0.39 | 0.10 | 99 | 1014.1 |
| 20260507071159 | 50 | 80 | 1.7 | 2.6 | 0.01 | 0.39 | 0.10 | 99 | 1014.1 |
| 20260507070956 | 50 | 77 | 1.7 | 2.6 | 0.01 | 0.39 | 0.10 | 99 | 1014.1 |
| 20260507070919 | 50 | 71 | 1.7 | 2.6 | 0.01 | 0.39 | 0.10 | 99 | 1014.1 |
| 20260507070813 | 50 | 71 | 0.9 | 2.6 | 0.01 | 0.39 | 0.10 | 99 | 1014.1 |
| 20260507070627 | 49 | 56 | 1.7 | 2.6 | 0.01 | 0.39 | 0.10 | 99 | 1014.1 |
| 20260507070508 | 49 | 71 | 1.7 | 2.6 | 0.01 | 0.39 | 0.10 | 100 | 1014.1 |
| 20260507070056 | 49 | 106 | 0.9 | 2.6 | 0.02 | 0.39 | 0.10 | 99 | 1014.1 |
| 20260507065647 | 49 | 52 | 1.7 | 2.6 | 0.02 | 0.39 | 0.10 | 99 | 1014.2 |
| 20260507065536 | 49 | 62 | 1.7 | 2.6 | 0.02 | 0.39 | 0.10 | 99 | 1014.1 |
| 20260507065020 | 48 | 83 | 1.7 | 2.6 | 0.02 | 0.39 | 0.10 | 99 | 1014.2 |
| 20260507064610 | 48 | 78 | 1.7 | 2.6 | 0.02 | 0.39 | 0.10 | 99 | 1014.2 |
| 20260507064413 | 48 | 16 | 1.7 | 2.6 | 0.01 | 0.38 | 0.09 | 99 | 1014.1 |
| 20260507064319 | 48 | 11 | 1.7 | 2.6 | 0.01 | 0.38 | 0.09 | 99 | 1014.1 |
| 20260507064205 | 48 | 11 | 1.7 | 2.6 | 0.01 | 0.38 | 0.09 | 99 | 1014.1 |
| 20260507064027 | 48 | 313 | 0.9 | 1.7 | 0.01 | 0.38 | 0.09 | 99 | 1014.1 |
| 20260507063647 | 48 | 313 | 0.0 | 1.7 | 0.01 | 0.38 | 0.09 | 99 | 1014.1 |
| 20260507063519 | 47 | 313 | 0.0 | 1.7 | 0.01 | 0.38 | 0.09 | 99 | 1014.1 |
| 20260507063359 | 47 | 313 | 0.9 | 1.7 | 0.01 | 0.38 | 0.09 | 99 | 1014.1 |
| 20260507063245 | 47 | 313 | 0.9 | 1.7 | 0.01 | 0.38 | 0.09 | 99 | 1014.1 |
| 20260507063129 | 47 | 313 | 0.0 | 2.6 | 0.01 | 0.38 | 0.09 | 99 | 1014.1 |
| 20260507063006 | 47 | 313 | 0.9 | 2.6 | 0.01 | 0.38 | 0.09 | 99 | 1014.1 |
| 20260507062919 | 47 | 313 | 0.9 | 2.6 | 0.01 | 0.38 | 0.09 | 99 | 1014.1 |
| 20260507062828 | 47 | 313 | 0.9 | 2.6 | 0.01 | 0.38 | 0.09 | 99 | 1014.1 |
| 20260507062259 | 46 | 313 | 0.9 | 2.6 | 0.01 | 0.38 | 0.09 | 99 | 1014.2 |
| 20260507061804 | 46 | 313 | 0.0 | 0.9 | 0.01 | 0.39 | 0.09 | 99 | 1014.0 |
| 20260507061631 | 46 | 313 | 0.0 | 0.9 | 0.01 | 0.39 | 0.09 | 99 | 1014.0 |
| 20260507061554 | 46 | 313 | 0.0 | 0.0 | 0.01 | 0.39 | 0.09 | 98 | 1014.1 |
| 20260507061455 | 46 | 313 | 0.0 | 0.0 | 0.01 | 0.39 | 0.09 | 98 | 1014.1 |
| 20260507061356 | 46 | 313 | 0.0 | 0.0 | 0.01 | 0.39 | 0.09 | 99 | 1014.1 |
| 20260507061242 | 46 | 313 | 0.0 | 0.0 | 0.01 | 0.39 | 0.09 | 98 | 1014.1 |
| 20260507061138 | 46 | 313 | 0.0 | 0.0 | 0.01 | 0.39 | 0.09 | 99 | 1014.1 |
| 20260507061109 | 46 | 313 | 0.0 | 0.0 | 0.01 | 0.39 | 0.09 | 99 | 1014.0 |
| 20260507061031 | 46 | 313 | 0.0 | 0.0 | 0.01 | 0.39 | 0.09 | 99 | 1014.1 |
| 20260507060351 | 45 | 313 | 0.0 | 0.0 | 0.02 | 0.39 | 0.09 | 98 | 1014.2 |
| 20260507060233 | 45 | 313 | 0.0 | 0.0 | 0.02 | 0.39 | 0.09 | 98 | 1014.1 |
| 20260507055532 | 45 | 313 | 0.0 | 0.0 | 0.02 | 0.39 | 0.09 | 98 | 1014.2 |
| 20260507055434 | 45 | 313 | 0.0 | 0.0 | 0.01 | 0.38 | 0.09 | 98 | 1014.1 |
| 20260507055332 | 45 | 313 | 0.0 | 0.0 | 0.01 | 0.38 | 0.09 | 99 | 1014.0 |
| 20260507054932 | 45 | 313 | 0.0 | 0.0 | 0.01 | 0.38 | 0.09 | 99 | 1014.0 |
| 20260507054833 | 45 | 313 | 0.0 | 0.0 | 0.01 | 0.38 | 0.09 | 99 | 1013.9 |
| 20260507054108 | 45 | 313 | 0.0 | 0.0 | 0.01 | 0.38 | 0.09 | 99 | 1013.9 |
| 20260507053935 | 45 | 313 | 0.0 | 0.0 | 0.01 | 0.38 | 0.09 | 99 | 1013.9 |
| 20260507053718 | 53 | 265 | 0.0 | 0.0 | 0.02 | 0.40 | 0.38 | 92 | 1015.0 |
| 20260507053646 | 45 | 313 | 0.0 | 0.0 | 0.01 | 0.38 | 0.09 | 98 | 1013.8 |
| 20260507053545 | 45 | 313 | 0.0 | 0.0 | 0.01 | 0.38 | 0.09 | 98 | 1013.8 |
| 20260507053517 | 45 | 313 | 0.0 | 0.0 | 0.01 | 0.38 | 0.09 | 98 | 1013.9 |
| 20260507053345 | 45 | 313 | 0.0 | 0.0 | 0.01 | 0.38 | 0.09 | 98 | 1013.9 |
| 20260507052932 | 44 | 313 | 0.0 | 0.0 | 0.01 | 0.38 | 0.09 | 98 | 1013.8 |
| 20260507052812 | 44 | 313 | 0.0 | 0.0 | 0.01 | 0.38 | 0.09 | 98 | 1013.8 |
| 20260507052807 | 53 | 265 | 0.0 | 0.0 | 0.02 | 0.39 | 0.37 | 92 | 1015.0 |
| 20260507052615 | 44 | 313 | 0.0 | 0.0 | 0.01 | 0.38 | 0.09 | 98 | 1013.8 |
| 20260507052458 | 45 | 313 | 0.0 | 0.0 | 0.01 | 0.38 | 0.09 | 98 | 1013.9 |
| 20260507052433 | 44 | 313 | 0.0 | 0.0 | 0.01 | 0.38 | 0.09 | 98 | 1014.0 |
| 20260507052211 | 44 | 313 | 0.0 | 0.0 | 0.01 | 0.38 | 0.09 | 98 | 1013.9 |
| 20260507052017 | 44 | 313 | 0.0 | 0.0 | 0.01 | 0.38 | 0.09 | 98 | 1013.8 |
| 20260507051927 | 44 | 313 | 0.0 | 0.0 | 0.01 | 0.38 | 0.09 | 98 | 1013.8 |
| 20260507051809 | 44 | 313 | 0.0 | 0.0 | 0.01 | 0.38 | 0.09 | 98 | 1013.9 |
| 20260507051616 | 44 | 313 | 0.0 | 0.0 | 0.01 | 0.39 | 0.09 | 98 | 1013.8 |
| 20260507051459 | 44 | 313 | 0.0 | 0.0 | 0.01 | 0.39 | 0.09 | 98 | 1013.8 |
| 20260507051440 | 44 | 313 | 0.0 | 0.0 | 0.01 | 0.39 | 0.09 | 98 | 1013.7 |
| 20260507051316 | 44 | 313 | 0.0 | 0.0 | 0.01 | 0.39 | 0.09 | 98 | 1013.8 |
| 20260507051201 | 44 | 313 | 0.0 | 0.0 | 0.02 | 0.39 | 0.09 | 98 | 1013.8 |
| 20260507051114 | 44 | 313 | 0.0 | 0.0 | 0.02 | 0.39 | 0.09 | 98 | 1013.8 |
| 20260507051009 | 44 | 313 | 0.0 | 0.0 | 0.02 | 0.39 | 0.09 | 98 | 1013.7 |
| 20260507050919 | 44 | 313 | 0.0 | 0.0 | 0.02 | 0.39 | 0.09 | 98 | 1013.7 |
| 20260507050817 | 44 | 313 | 0.0 | 0.0 | 0.02 | 0.39 | 0.09 | 98 | 1013.8 |
| 20260507050802 | 44 | 313 | 0.0 | 0.0 | 0.02 | 0.39 | 0.09 | 98 | 1013.7 |
| 20260507050621 | 44 | 313 | 0.0 | 0.0 | 0.02 | 0.39 | 0.09 | 98 | 1013.7 |
| 20260507050233 | 44 | 313 | 0.0 | 0.0 | 0.01 | 0.38 | 0.08 | 98 | 1013.6 |
| 20260507050127 | 44 | 313 | 0.0 | 0.0 | 0.01 | 0.38 | 0.08 | 98 | 1013.6 |
| 20260507045457 | 44 | 313 | 0.0 | 0.0 | 0.01 | 0.38 | 0.08 | 98 | 1013.6 |
| 20260507045331 | 44 | 313 | 0.0 | 0.0 | 0.01 | 0.38 | 0.08 | 98 | 1013.7 |
| 20260507045241 | 44 | 313 | 0.0 | 0.0 | 0.01 | 0.38 | 0.08 | 98 | 1013.7 |
| 20260507044930 | 44 | 313 | 0.0 | 0.0 | 0.01 | 0.38 | 0.08 | 98 | 1013.6 |
| 20260507044725 | 44 | 313 | 0.0 | 0.0 | 0.01 | 0.38 | 0.08 | 97 | 1013.6 |
| 20260507044359 | 44 | 313 | 0.0 | 0.0 | 0.01 | 0.38 | 0.08 | 97 | 1013.6 |
| 20260507044214 | 44 | 313 | 0.0 | 0.0 | 0.01 | 0.38 | 0.08 | 97 | 1013.6 |
| 20260507044100 | 44 | 313 | 0.0 | 0.0 | 0.01 | 0.38 | 0.08 | 97 | 1013.6 |
| 20260507044008 | 44 | 313 | 0.0 | 0.0 | 0.01 | 0.38 | 0.08 | 97 | 1013.7 |
| 20260507043443 | 45 | 313 | 0.0 | 0.0 | 0.01 | 0.38 | 0.08 | 98 | 1013.6 |
| 20260507043413 | 45 | 313 | 0.0 | 0.0 | 0.01 | 0.38 | 0.08 | 98 | 1013.6 |
| 20260507043252 | 53 | 265 | 0.0 | 0.0 | 0.02 | 0.39 | 0.37 | 92 | 1015.0 |
| 20260507043210 | 45 | 313 | 0.0 | 0.0 | 0.01 | 0.38 | 0.08 | 98 | 1013.7 |
| 20260507043037 | 45 | 313 | 0.0 | 0.0 | 0.01 | 0.38 | 0.08 | 98 | 1013.7 |
| 20260507042929 | 45 | 313 | 0.0 | 0.0 | 0.01 | 0.38 | 0.08 | 98 | 1013.6 |
| 20260507042806 | 45 | 313 | 0.0 | 0.0 | 0.01 | 0.38 | 0.08 | 98 | 1013.7 |
| 20260507042640 | 45 | 313 | 0.0 | 0.0 | 0.01 | 0.39 | 0.08 | 98 | 1013.7 |
| 20260507042522 | 45 | 313 | 0.0 | 0.0 | 0.01 | 0.39 | 0.08 | 98 | 1013.7 |
| 20260507042338 | 45 | 313 | 0.0 | 0.0 | 0.02 | 0.39 | 0.08 | 98 | 1013.8 |
| 20260507041939 | 45 | 313 | 0.0 | 0.0 | 0.02 | 0.39 | 0.08 | 98 | 1013.8 |
| 20260507041834 | 45 | 313 | 0.0 | 0.0 | 0.02 | 0.39 | 0.08 | 98 | 1013.7 |
| 20260507041726 | 45 | 313 | 0.0 | 0.0 | 0.02 | 0.39 | 0.08 | 98 | 1013.8 |
| 20260507041624 | 45 | 313 | 0.0 | 0.0 | 0.02 | 0.39 | 0.08 | 98 | 1013.7 |
| 20260507041607 | 45 | 313 | 0.0 | 0.0 | 0.02 | 0.39 | 0.08 | 98 | 1013.8 |
| 20260507041144 | 45 | 313 | 0.0 | 0.0 | 0.02 | 0.39 | 0.08 | 98 | 1013.8 |
| 20260507040950 | 46 | 313 | 0.0 | 0.0 | 0.01 | 0.38 | 0.07 | 98 | 1013.8 |
| 20260507040904 | 46 | 313 | 0.0 | 0.0 | 0.01 | 0.38 | 0.07 | 98 | 1013.8 |
| 20260507040741 | 46 | 313 | 0.0 | 0.0 | 0.01 | 0.38 | 0.07 | 98 | 1013.8 |
| 20260507040712 | 53 | 265 | 0.0 | 0.0 | 0.02 | 0.39 | 0.37 | 91 | 1014.8 |
| 20260507040547 | 46 | 313 | 0.0 | 0.0 | 0.01 | 0.38 | 0.07 | 98 | 1013.7 |
| 20260507040407 | 46 | 313 | 0.0 | 0.0 | 0.01 | 0.38 | 0.07 | 98 | 1013.8 |
| 20260507040359 | 46 | 313 | 0.0 | 0.0 | 0.01 | 0.38 | 0.07 | 98 | 1013.7 |
| 20260507040149 | 46 | 313 | 0.0 | 0.0 | 0.01 | 0.38 | 0.07 | 98 | 1013.8 |
| 20260507040025 | 46 | 313 | 0.0 | 0.0 | 0.01 | 0.38 | 0.07 | 98 | 1013.6 |
| 20260507035952 | 46 | 313 | 0.0 | 0.0 | 0.01 | 0.38 | 0.07 | 98 | 1013.7 |
| 20260507035826 | 46 | 313 | 0.0 | 0.0 | 0.01 | 0.38 | 0.07 | 98 | 1013.7 |
| 20260507035728 | 46 | 313 | 0.0 | 0.0 | 0.01 | 0.38 | 0.07 | 98 | 1013.7 |
| 20260507035412 | 46 | 313 | 0.0 | 0.0 | 0.01 | 0.38 | 0.07 | 98 | 1013.6 |
| 20260507035233 | 46 | 313 | 0.0 | 0.0 | 0.01 | 0.38 | 0.07 | 98 | 1013.7 |
| 20260507035123 | 46 | 313 | 0.0 | 0.0 | 0.01 | 0.38 | 0.07 | 98 | 1013.8 |
| 20260507034737 | 46 | 313 | 0.0 | 0.0 | 0.01 | 0.38 | 0.07 | 98 | 1013.7 |
| 20260507034721 | 54 | 265 | 0.0 | 0.0 | 0.02 | 0.40 | 0.37 | 90 | 1014.8 |
| 20260507034657 | 54 | 265 | 0.0 | 0.0 | 0.02 | 0.40 | 0.37 | 90 | 1014.7 |
| 20260507034607 | 54 | 265 | 0.0 | 0.0 | 0.02 | 0.39 | 0.36 | 90 | 1014.8 |
| 20260507034537 | 46 | 313 | 0.0 | 0.0 | 0.01 | 0.38 | 0.07 | 98 | 1013.7 |
| 20260507034458 | 54 | 265 | 0.0 | 0.0 | 0.02 | 0.39 | 0.36 | 90 | 1014.6 |
| 20260507034406 | 46 | 313 | 0.0 | 0.0 | 0.01 | 0.38 | 0.07 | 98 | 1013.8 |
| 20260507034351 | 46 | 313 | 0.0 | 0.0 | 0.01 | 0.38 | 0.07 | 98 | 1013.7 |
| 20260507034227 | 54 | 265 | 0.0 | 0.9 | 0.02 | 0.39 | 0.36 | 90 | 1014.6 |
| 20260507034137 | 46 | 313 | 0.0 | 0.0 | 0.01 | 0.38 | 0.07 | 98 | 1013.7 |
| 20260507033939 | 46 | 313 | 0.0 | 0.0 | 0.01 | 0.38 | 0.07 | 98 | 1013.7 |
| 20260507033913 | 55 | 255 | 0.0 | 2.6 | 0.02 | 0.39 | 0.35 | 88 | 1014.3 |
| 20260507033839 | 46 | 313 | 0.0 | 0.0 | 0.01 | 0.38 | 0.07 | 98 | 1013.7 |
| 20260507033725 | 46 | 313 | 0.0 | 0.0 | 0.01 | 0.39 | 0.07 | 98 | 1013.7 |
| 20260507033531 | 46 | 313 | 0.0 | 0.0 | 0.02 | 0.39 | 0.07 | 98 | 1013.7 |
| 20260507033354 | 46 | 313 | 0.0 | 0.0 | 0.02 | 0.39 | 0.07 | 98 | 1013.7 |
| 20260507033128 | 46 | 313 | 0.0 | 0.0 | 0.02 | 0.39 | 0.07 | 98 | 1013.8 |
| 20260507033024 | 46 | 313 | 0.0 | 0.0 | 0.02 | 0.39 | 0.07 | 98 | 1013.7 |
| 20260507032957 | 46 | 313 | 0.0 | 0.0 | 0.02 | 0.39 | 0.07 | 98 | 1013.7 |
| 20260507032847 | 46 | 313 | 0.0 | 0.0 | 0.02 | 0.39 | 0.07 | 98 | 1013.7 |
| 20260507032753 | 46 | 313 | 0.0 | 0.0 | 0.02 | 0.39 | 0.07 | 97 | 1013.8 |
| 20260507032433 | 46 | 313 | 0.0 | 0.0 | 0.01 | 0.38 | 0.07 | 97 | 1013.8 |
| 20260507032235 | 46 | 313 | 0.0 | 0.0 | 0.01 | 0.38 | 0.06 | 97 | 1013.8 |
| 20260507031935 | 56 | 261 | 1.7 | 3.5 | 0.02 | 0.39 | 0.35 | 87 | 1014.2 |
| 20260507031904 | 46 | 313 | 0.0 | 0.0 | 0.01 | 0.38 | 0.06 | 97 | 1013.8 |
| 20260507031826 | 46 | 313 | 0.0 | 0.0 | 0.01 | 0.38 | 0.06 | 97 | 1013.8 |
| 20260507031707 | 46 | 313 | 0.0 | 0.0 | 0.01 | 0.38 | 0.06 | 97 | 1013.8 |
| 20260507031509 | 46 | 313 | 0.0 | 0.0 | 0.01 | 0.38 | 0.06 | 97 | 1013.8 |
| 20260507031359 | 46 | 313 | 0.0 | 0.0 | 0.01 | 0.38 | 0.06 | 97 | 1013.8 |
| 20260507031112 | 46 | 313 | 0.0 | 0.0 | 0.01 | 0.38 | 0.06 | 98 | 1013.9 |
| 20260507030934 | 46 | 313 | 0.0 | 0.0 | 0.01 | 0.38 | 0.06 | 98 | 1013.9 |
| 20260507030804 | 46 | 313 | 0.0 | 0.0 | 0.01 | 0.38 | 0.06 | 98 | 1013.9 |
| 20260507030653 | 46 | 313 | 0.0 | 0.0 | 0.01 | 0.38 | 0.06 | 98 | 1013.9 |
| 20260507030618 | 46 | 313 | 0.0 | 0.0 | 0.01 | 0.38 | 0.06 | 98 | 1013.9 |
| 20260507030604 | 46 | 313 | 0.0 | 0.0 | 0.01 | 0.38 | 0.06 | 98 | 1014.0 |
| 20260507025836 | 46 | 313 | 0.0 | 0.0 | 0.01 | 0.39 | 0.06 | 97 | 1013.9 |
| 20260507025712 | 56 | 264 | 1.7 | 3.5 | 0.02 | 0.40 | 0.35 | 86 | 1014.1 |
| 20260507025642 | 46 | 313 | 0.0 | 0.0 | 0.01 | 0.39 | 0.06 | 97 | 1014.0 |
| 20260507025506 | 56 | 270 | 0.0 | 3.5 | 0.02 | 0.40 | 0.35 | 86 | 1014.2 |
| 20260507025438 | 46 | 313 | 0.0 | 0.0 | 0.01 | 0.39 | 0.06 | 97 | 1013.9 |
| 20260507025334 | 46 | 313 | 0.0 | 0.0 | 0.02 | 0.39 | 0.06 | 97 | 1014.0 |
| 20260507025316 | 46 | 313 | 0.0 | 0.0 | 0.02 | 0.39 | 0.06 | 97 | 1014.0 |
| 20260507025057 | 46 | 313 | 0.0 | 0.0 | 0.02 | 0.39 | 0.06 | 97 | 1014.0 |
| 20260507024926 | 46 | 313 | 0.0 | 0.0 | 0.02 | 0.39 | 0.06 | 97 | 1014.0 |
| 20260507024756 | 46 | 313 | 0.0 | 0.0 | 0.02 | 0.39 | 0.06 | 97 | 1013.9 |
| 20260507024341 | 46 | 313 | 0.0 | 0.0 | 0.02 | 0.39 | 0.06 | 97 | 1013.9 |
| 20260507024328 | 46 | 313 | 0.0 | 0.0 | 0.02 | 0.39 | 0.06 | 97 | 1013.9 |
| 20260507024154 | 56 | 263 | 1.7 | 5.2 | 0.02 | 0.39 | 0.35 | 85 | 1014.1 |
| 20260507024057 | 46 | 313 | 0.0 | 0.0 | 0.02 | 0.39 | 0.06 | 97 | 1013.9 |
| 20260507023934 | 46 | 313 | 0.0 | 0.0 | 0.02 | 0.39 | 0.06 | 97 | 1013.9 |
| 20260507023821 | 46 | 313 | 0.0 | 0.0 | 0.01 | 0.38 | 0.06 | 97 | 1013.8 |
| 20260507023402 | 47 | 313 | 0.0 | 0.0 | 0.01 | 0.38 | 0.06 | 97 | 1013.9 |
| 20260507023344 | 46 | 313 | 0.0 | 0.0 | 0.01 | 0.38 | 0.06 | 97 | 1013.8 |
| 20260507023140 | 47 | 313 | 0.0 | 0.0 | 0.01 | 0.38 | 0.06 | 97 | 1013.9 |
| 20260507023032 | 47 | 313 | 0.0 | 0.0 | 0.01 | 0.38 | 0.06 | 97 | 1013.9 |
| 20260507023014 | 47 | 313 | 0.0 | 0.0 | 0.01 | 0.38 | 0.06 | 97 | 1013.8 |
| 20260507022511 | 47 | 313 | 0.0 | 0.0 | 0.01 | 0.38 | 0.06 | 97 | 1013.9 |
| 20260507022416 | 47 | 313 | 0.0 | 0.0 | 0.01 | 0.38 | 0.06 | 98 | 1013.8 |
| 20260507022343 | 47 | 313 | 0.0 | 0.0 | 0.01 | 0.38 | 0.06 | 98 | 1013.8 |
| 20260507022158 | 47 | 313 | 0.0 | 0.0 | 0.01 | 0.38 | 0.06 | 98 | 1013.8 |
| 20260507021834 | 47 | 313 | 0.0 | 0.0 | 0.01 | 0.39 | 0.06 | 98 | 1013.8 |
| 20260507021624 | 47 | 313 | 0.0 | 0.0 | 0.01 | 0.39 | 0.06 | 98 | 1013.9 |
| 20260507021420 | 47 | 313 | 0.0 | 0.0 | 0.02 | 0.39 | 0.06 | 98 | 1013.9 |
| 20260507021334 | 47 | 313 | 0.0 | 0.0 | 0.02 | 0.39 | 0.06 | 98 | 1013.8 |
| 20260507021300 | 47 | 313 | 0.0 | 0.0 | 0.02 | 0.39 | 0.06 | 98 | 1013.9 |
| 20260507021145 | 56 | 276 | 1.7 | 5.2 | 0.02 | 0.39 | 0.35 | 85 | 1014.1 |
| 20260507021023 | 47 | 313 | 0.0 | 0.0 | 0.02 | 0.39 | 0.06 | 98 | 1014.0 |
| 20260507020936 | 56 | 259 | 1.7 | 5.2 | 0.02 | 0.39 | 0.35 | 84 | 1014.0 |
| 20260507020839 | 47 | 313 | 0.0 | 0.0 | 0.02 | 0.39 | 0.06 | 98 | 1013.9 |
| 20260507020659 | 47 | 313 | 0.0 | 0.0 | 0.02 | 0.39 | 0.06 | 97 | 1013.9 |
| 20260507020612 | 47 | 313 | 0.0 | 0.0 | 0.02 | 0.39 | 0.06 | 97 | 1013.9 |
| 20260507020543 | 47 | 313 | 0.0 | 0.0 | 0.02 | 0.39 | 0.06 | 98 | 1013.9 |
| 20260507020522 | 47 | 313 | 0.0 | 0.0 | 0.02 | 0.39 | 0.06 | 97 | 1013.9 |
| 20260507020339 | 46 | 313 | 0.0 | 0.0 | 0.02 | 0.39 | 0.06 | 97 | 1013.8 |
| 20260507020243 | 47 | 313 | 0.0 | 0.0 | 0.02 | 0.39 | 0.06 | 97 | 1013.9 |
| 20260507020107 | 46 | 313 | 0.0 | 0.0 | 0.02 | 0.39 | 0.06 | 97 | 1013.8 |
| 20260507015452 | 47 | 313 | 0.0 | 0.0 | 0.01 | 0.38 | 0.05 | 97 | 1013.8 |
| 20260507015319 | 47 | 313 | 0.0 | 0.0 | 0.01 | 0.38 | 0.05 | 97 | 1013.8 |
| 20260507015232 | 47 | 313 | 0.0 | 0.0 | 0.01 | 0.38 | 0.05 | 97 | 1013.8 |
| 20260507014843 | 47 | 313 | 0.0 | 0.0 | 0.01 | 0.38 | 0.05 | 97 | 1013.9 |
| 20260507014748 | 47 | 313 | 0.0 | 0.0 | 0.01 | 0.38 | 0.05 | 97 | 1013.8 |
| 20260507014437 | 47 | 313 | 0.0 | 0.0 | 0.01 | 0.39 | 0.05 | 97 | 1014.0 |
| 20260507014305 | 46 | 313 | 0.0 | 0.0 | 0.01 | 0.39 | 0.05 | 97 | 1013.9 |
| 20260507014211 | 47 | 313 | 0.0 | 0.0 | 0.01 | 0.39 | 0.05 | 97 | 1013.9 |
| 20260507014123 | 47 | 313 | 0.0 | 0.0 | 0.01 | 0.39 | 0.05 | 97 | 1013.9 |
| 20260507013747 | 47 | 313 | 0.0 | 0.0 | 0.02 | 0.39 | 0.05 | 97 | 1013.9 |
| 20260507013721 | 47 | 313 | 0.0 | 0.0 | 0.02 | 0.39 | 0.05 | 97 | 1014.0 |
| 20260507013319 | 47 | 313 | 0.0 | 0.0 | 0.02 | 0.39 | 0.05 | 97 | 1014.0 |
| 20260507012612 | 47 | 313 | 0.0 | 0.0 | 0.02 | 0.39 | 0.05 | 97 | 1014.0 |
| 20260507012314 | 47 | 313 | 0.0 | 0.0 | 0.02 | 0.39 | 0.05 | 97 | 1014.0 |
| 20260507012142 | 47 | 313 | 0.0 | 0.0 | 0.02 | 0.39 | 0.05 | 97 | 1014.1 |
| 20260507012038 | 47 | 313 | 0.0 | 0.0 | 0.02 | 0.39 | 0.05 | 97 | 1014.0 |
| 20260507011600 | 47 | 313 | 0.0 | 0.0 | 0.02 | 0.39 | 0.05 | 97 | 1014.1 |
| 20260507011400 | 46 | 313 | 0.0 | 0.0 | 0.01 | 0.38 | 0.05 | 97 | 1014.0 |
| 20260507011317 | 47 | 313 | 0.0 | 0.0 | 0.01 | 0.38 | 0.04 | 97 | 1014.0 |
| 20260507011235 | 47 | 313 | 0.0 | 0.0 | 0.01 | 0.39 | 0.04 | 97 | 1014.1 |
| 20260507011049 | 47 | 313 | 0.0 | 0.0 | 0.01 | 0.39 | 0.04 | 96 | 1014.1 |
| 20260507010952 | 47 | 313 | 0.0 | 0.0 | 0.01 | 0.39 | 0.04 | 96 | 1014.0 |
| 20260507010937 | 47 | 313 | 0.0 | 0.0 | 0.01 | 0.39 | 0.04 | 96 | 1014.0 |
| 20260507010405 | 47 | 313 | 0.0 | 0.0 | 0.01 | 0.39 | 0.04 | 97 | 1014.1 |
| 20260507010340 | 47 | 313 | 0.0 | 0.0 | 0.01 | 0.39 | 0.04 | 97 | 1014.2 |
| 20260507010230 | 47 | 313 | 0.0 | 0.0 | 0.01 | 0.39 | 0.04 | 97 | 1014.1 |
| 20260507010122 | 47 | 313 | 0.0 | 0.0 | 0.01 | 0.39 | 0.04 | 97 | 1014.1 |
| 20260507010050 | 47 | 313 | 0.0 | 0.0 | 0.01 | 0.39 | 0.04 | 97 | 1014.1 |
| 20260507010029 | 47 | 313 | 0.0 | 0.0 | 0.01 | 0.39 | 0.04 | 97 | 1014.2 |
| 20260507005836 | 47 | 313 | 0.0 | 0.0 | 0.01 | 0.39 | 0.04 | 97 | 1014.3 |
| 20260507005515 | 47 | 313 | 0.0 | 0.0 | 0.02 | 0.39 | 0.04 | 97 | 1014.3 |
| 20260507005319 | 47 | 313 | 0.0 | 0.0 | 0.02 | 0.39 | 0.04 | 97 | 1014.2 |
| 20260507005157 | 47 | 313 | 0.0 | 0.0 | 0.02 | 0.39 | 0.04 | 96 | 1014.2 |
| 20260507004841 | 47 | 313 | 0.0 | 0.0 | 0.02 | 0.39 | 0.04 | 96 | 1014.3 |
| 20260507004638 | 47 | 313 | 0.0 | 0.0 | 0.02 | 0.39 | 0.04 | 96 | 1014.4 |
| 20260507004540 | 47 | 313 | 0.0 | 0.0 | 0.02 | 0.39 | 0.04 | 97 | 1014.4 |
| 20260507004141 | 48 | 313 | 0.0 | 0.0 | 0.02 | 0.39 | 0.04 | 97 | 1014.3 |
| 20260507004054 | 48 | 313 | 0.0 | 0.0 | 0.02 | 0.39 | 0.04 | 97 | 1014.4 |
| 20260507004031 | 48 | 313 | 0.0 | 0.0 | 0.02 | 0.39 | 0.04 | 97 | 1014.4 |
| 20260507003549 | 48 | 313 | 0.0 | 0.0 | 0.02 | 0.39 | 0.04 | 97 | 1014.5 |
| 20260507003450 | 48 | 313 | 0.0 | 0.0 | 0.01 | 0.39 | 0.03 | 97 | 1014.5 |
| 20260507003438 | 48 | 313 | 0.0 | 0.0 | 0.01 | 0.39 | 0.03 | 97 | 1014.5 |
| 20260507003227 | 48 | 313 | 0.0 | 0.0 | 0.01 | 0.39 | 0.03 | 97 | 1014.5 |
| 20260507003115 | 48 | 313 | 0.0 | 0.0 | 0.01 | 0.39 | 0.03 | 97 | 1014.6 |
| 20260507003100 | 48 | 313 | 0.0 | 0.0 | 0.01 | 0.39 | 0.03 | 97 | 1014.5 |
| 20260507002607 | 48 | 313 | 0.0 | 0.0 | 0.01 | 0.39 | 0.03 | 97 | 1014.6 |
| 20260507002531 | 48 | 313 | 0.0 | 0.0 | 0.01 | 0.39 | 0.03 | 97 | 1014.5 |
| 20260507002516 | 48 | 313 | 0.0 | 0.0 | 0.01 | 0.39 | 0.03 | 97 | 1014.6 |
| 20260507002333 | 48 | 313 | 0.0 | 0.0 | 0.02 | 0.39 | 0.03 | 97 | 1014.5 |
| 20260507002229 | 48 | 313 | 0.0 | 0.0 | 0.02 | 0.39 | 0.03 | 96 | 1014.5 |
| 20260507002213 | 48 | 313 | 0.0 | 0.0 | 0.02 | 0.39 | 0.03 | 96 | 1014.6 |
| 20260507002145 | 48 | 313 | 0.0 | 0.0 | 0.02 | 0.39 | 0.03 | 96 | 1014.5 |
| 20260507001654 | 48 | 313 | 0.0 | 0.0 | 0.02 | 0.39 | 0.03 | 96 | 1014.5 |
| 20260507001553 | 48 | 313 | 0.0 | 0.0 | 0.02 | 0.39 | 0.03 | 96 | 1014.6 |
| 20260507001213 | 48 | 313 | 0.0 | 0.0 | 0.02 | 0.39 | 0.03 | 96 | 1014.5 |
| 20260507001133 | 48 | 313 | 0.0 | 0.0 | 0.02 | 0.39 | 0.03 | 96 | 1014.5 |
| 20260507000931 | 48 | 313 | 0.0 | 0.0 | 0.02 | 0.39 | 0.03 | 96 | 1014.5 |
| 20260507000626 | 48 | 313 | 0.0 | 0.0 | 0.02 | 0.39 | 0.03 | 96 | 1014.5 |
| 20260507000421 | 48 | 313 | 0.0 | 0.0 | 0.02 | 0.39 | 0.03 | 96 | 1014.6 |
| 20260507000328 | 48 | 313 | 0.0 | 0.0 | 0.02 | 0.39 | 0.03 | 96 | 1014.6 |
| 20260506235925 | 48 | 313 | 0.0 | 0.0 | 0.02 | 0.39 | 0.03 | 96 | 1014.7 |
| 20260506235812 | 48 | 313 | 0.0 | 0.0 | 0.01 | 0.39 | 0.02 | 97 | 1014.6 |
| 20260506235707 | 48 | 313 | 0.0 | 0.0 | 0.01 | 0.39 | 0.02 | 97 | 1014.7 |
| 20260506235620 | 48 | 313 | 0.0 | 0.0 | 0.01 | 0.39 | 0.02 | 97 | 1014.7 |
| 20260506235254 | 48 | 313 | 0.0 | 0.0 | 0.02 | 0.39 | 0.02 | 96 | 1014.7 |
| 20260506235220 | 48 | 313 | 0.0 | 0.0 | 0.02 | 0.39 | 0.02 | 96 | 1014.7 |
| 20260506235119 | 48 | 313 | 0.0 | 0.0 | 0.02 | 0.39 | 0.02 | 96 | 1014.7 |
| 20260506235042 | 48 | 313 | 0.0 | 0.0 | 0.02 | 0.39 | 0.02 | 96 | 1014.6 |
| 20260506234403 | 49 | 313 | 0.0 | 0.0 | 0.02 | 0.39 | 0.02 | 96 | 1014.6 |
| 20260506234312 | 49 | 313 | 0.0 | 0.0 | 0.02 | 0.39 | 0.02 | 96 | 1014.6 |
| 20260506234212 | 49 | 313 | 0.0 | 0.9 | 0.02 | 0.39 | 0.02 | 96 | 1014.6 |
| 20260506234132 | 49 | 313 | 0.0 | 0.9 | 0.02 | 0.39 | 0.02 | 96 | 1014.6 |
| 20260506234112 | 49 | 313 | 0.0 | 0.9 | 0.02 | 0.39 | 0.02 | 96 | 1014.6 |
| 20260506234014 | 49 | 313 | 0.0 | 0.9 | 0.02 | 0.39 | 0.02 | 96 | 1014.5 |
| 20260506233711 | 49 | 313 | 0.0 | 0.9 | 0.02 | 0.39 | 0.02 | 96 | 1014.6 |
| 20260506233248 | 48 | 313 | 0.0 | 0.9 | 0.02 | 0.39 | 0.02 | 95 | 1014.6 |
| 20260506233207 | 48 | 290 | 0.0 | 0.0 | 0.02 | 0.40 | 0.02 | 96 | 1014.5 |
| 20260506233134 | 48 | 290 | 0.0 | 0.0 | 0.02 | 0.40 | 0.02 | 96 | 1014.6 |
| 20260506233019 | 49 | 290 | 0.0 | 0.0 | 0.01 | 0.39 | 0.02 | 96 | 1014.7 |
| 20260506232926 | 49 | 290 | 0.0 | 0.0 | 0.01 | 0.39 | 0.02 | 96 | 1014.7 |
| 20260506232846 | 49 | 290 | 0.0 | 0.0 | 0.02 | 0.39 | 0.02 | 96 | 1014.7 |
| 20260506232751 | 49 | 290 | 0.0 | 0.0 | 0.02 | 0.39 | 0.02 | 96 | 1014.8 |
| 20260506232722 | 49 | 290 | 0.0 | 0.0 | 0.02 | 0.39 | 0.02 | 95 | 1014.8 |
| 20260506232655 | 49 | 290 | 0.0 | 0.0 | 0.02 | 0.39 | 0.02 | 95 | 1014.8 |
| 20260506232306 | 49 | 290 | 0.0 | 0.0 | 0.02 | 0.39 | 0.02 | 95 | 1014.8 |
| 20260506231058 | 49 | 290 | 0.0 | 0.0 | 0.02 | 0.39 | 0.02 | 95 | 1014.8 |
| 20260506230953 | 49 | 290 | 0.0 | 0.0 | 0.02 | 0.39 | 0.02 | 95 | 1014.8 |
| 20260506230647 | 49 | 290 | 0.0 | 0.0 | 0.02 | 0.39 | 0.02 | 95 | 1014.7 |
| 20260506230255 | 50 | 290 | 0.0 | 0.0 | 0.02 | 0.39 | 0.02 | 96 | 1014.7 |
| 20260506230236 | 50 | 290 | 0.0 | 0.0 | 0.02 | 0.40 | 0.02 | 96 | 1014.7 |
| 20260506225840 | 50 | 290 | 0.0 | 0.0 | 0.01 | 0.39 | 0.02 | 96 | 1014.7 |
| 20260506225729 | 50 | 290 | 0.0 | 0.0 | 0.01 | 0.39 | 0.01 | 95 | 1014.8 |
| 20260506225349 | 50 | 290 | 0.0 | 0.0 | 0.02 | 0.39 | 0.01 | 95 | 1014.7 |
| 20260506225330 | 50 | 290 | 0.0 | 0.0 | 0.02 | 0.39 | 0.01 | 95 | 1014.7 |
| 20260506225254 | 50 | 290 | 0.0 | 0.0 | 0.02 | 0.39 | 0.01 | 95 | 1014.8 |
| 20260506224657 | 50 | 290 | 0.0 | 0.0 | 0.02 | 0.39 | 0.01 | 95 | 1014.8 |
| 20260506224552 | 50 | 290 | 0.0 | 0.0 | 0.02 | 0.39 | 0.01 | 95 | 1014.7 |
| 20260506224229 | 50 | 290 | 0.0 | 0.0 | 0.02 | 0.39 | 0.01 | 95 | 1014.8 |
| 20260506224154 | 50 | 290 | 0.0 | 0.0 | 0.02 | 0.39 | 0.01 | 95 | 1014.8 |
| 20260506222949 | 50 | 290 | 0.0 | 0.0 | 0.02 | 0.39 | 0.01 | 95 | 1014.8 |
| 20260506222934 | 50 | 290 | 0.0 | 0.0 | 0.02 | 0.40 | 0.01 | 95 | 1014.8 |
| 20260506222901 | 50 | 290 | 0.0 | 0.0 | 0.02 | 0.40 | 0.01 | 95 | 1014.8 |
| 20260506222757 | 51 | 290 | 0.0 | 0.0 | 0.02 | 0.40 | 0.01 | 95 | 1014.7 |
| 20260506222718 | 51 | 290 | 0.0 | 0.0 | 0.02 | 0.40 | 0.01 | 95 | 1014.8 |
| 20260506222701 | 51 | 290 | 0.0 | 0.0 | 0.02 | 0.40 | 0.01 | 95 | 1014.7 |
| 20260506222548 | 51 | 290 | 0.0 | 0.0 | 0.01 | 0.39 | 0.00 | 95 | 1014.7 |
| 20260506222241 | 51 | 290 | 0.0 | 0.0 | 0.02 | 0.39 | 0.00 | 95 | 1014.7 |
| 20260506222217 | 51 | 290 | 0.0 | 0.0 | 0.02 | 0.39 | 0.00 | 95 | 1014.8 |
| 20260506221842 | 51 | 290 | 0.0 | 0.0 | 0.02 | 0.39 | 0.00 | 95 | 1014.7 |
| 20260506221824 | 51 | 290 | 0.0 | 0.0 | 0.02 | 0.39 | 0.00 | 95 | 1014.8 |
| 20260506221720 | 51 | 290 | 0.0 | 0.0 | 0.02 | 0.39 | 0.00 | 95 | 1014.8 |
| 20260506221648 | 51 | 290 | 0.0 | 0.0 | 0.02 | 0.39 | 0.00 | 95 | 1014.8 |
| 20260506221626 | 51 | 290 | 0.0 | 0.0 | 0.02 | 0.39 | 0.00 | 95 | 1014.8 |
| 20260506221557 | 51 | 290 | 0.0 | 0.0 | 0.02 | 0.39 | 0.00 | 95 | 1014.9 |
| 20260506221135 | 51 | 290 | 0.0 | 0.0 | 0.02 | 0.39 | 0.39 | 94 | 1014.8 |
| 20260506221039 | 51 | 290 | 0.0 | 0.0 | 0.02 | 0.39 | 0.39 | 94 | 1014.8 |
| 20260506221003 | 51 | 290 | 0.0 | 0.0 | 0.02 | 0.39 | 0.39 | 94 | 1014.9 |
| 20260506220707 | 51 | 290 | 0.0 | 0.0 | 0.02 | 0.40 | 0.39 | 94 | 1014.8 |
| 20260506220600 | 51 | 290 | 0.0 | 0.0 | 0.02 | 0.40 | 0.39 | 94 | 1014.9 |
| 20260506220512 | 51 | 290 | 0.0 | 0.0 | 0.02 | 0.40 | 0.39 | 94 | 1014.9 |
| 20260506220355 | 51 | 290 | 0.0 | 0.0 | 0.02 | 0.40 | 0.39 | 94 | 1014.9 |
| 20260506215733 | 51 | 290 | 0.0 | 0.0 | 0.02 | 0.39 | 0.39 | 94 | 1014.9 |
| 20260506215639 | 51 | 290 | 0.0 | 0.0 | 0.02 | 0.39 | 0.39 | 94 | 1014.9 |
| 20260506215553 | 51 | 290 | 0.0 | 0.0 | 0.02 | 0.39 | 0.39 | 94 | 1014.9 |
| 20260506215242 | 51 | 290 | 0.0 | 0.0 | 0.02 | 0.39 | 0.39 | 94 | 1015.0 |
| 20260506215138 | 51 | 290 | 0.0 | 0.0 | 0.02 | 0.39 | 0.39 | 94 | 1015.0 |
| 20260506215108 | 51 | 290 | 0.0 | 0.0 | 0.02 | 0.39 | 0.39 | 93 | 1015.0 |
| 20260506214735 | 51 | 290 | 0.0 | 0.0 | 0.02 | 0.39 | 0.39 | 94 | 1015.0 |
| 20260506214420 | 52 | 290 | 0.0 | 0.0 | 0.02 | 0.39 | 0.39 | 94 | 1015.0 |
| 20260506214332 | 52 | 290 | 0.0 | 0.0 | 0.02 | 0.39 | 0.39 | 94 | 1015.0 |
| 20260506214247 | 52 | 290 | 0.0 | 0.0 | 0.02 | 0.39 | 0.39 | 94 | 1015.0 |
| 20260506214219 | 52 | 290 | 0.0 | 0.0 | 0.02 | 0.39 | 0.39 | 94 | 1015.0 |
| 20260506214137 | 52 | 290 | 0.0 | 0.0 | 0.02 | 0.40 | 0.39 | 93 | 1014.9 |
| 20260506213750 | 52 | 290 | 0.0 | 0.0 | 0.02 | 0.40 | 0.39 | 93 | 1015.0 |
| 20260506213736 | 52 | 290 | 0.0 | 0.0 | 0.02 | 0.40 | 0.39 | 93 | 1015.0 |
| 20260506213639 | 52 | 290 | 0.0 | 0.9 | 0.02 | 0.40 | 0.39 | 94 | 1015.0 |
| 20260506213533 | 52 | 290 | 0.0 | 0.9 | 0.02 | 0.39 | 0.38 | 93 | 1015.1 |
| 20260506213520 | 52 | 290 | 0.0 | 0.9 | 0.02 | 0.39 | 0.38 | 93 | 1015.0 |
| 20260506213442 | 52 | 290 | 0.0 | 0.9 | 0.02 | 0.39 | 0.38 | 93 | 1015.0 |
| 20260506213335 | 52 | 290 | 0.0 | 0.9 | 0.02 | 0.39 | 0.38 | 93 | 1015.0 |
| 20260506213300 | 52 | 290 | 0.0 | 0.9 | 0.02 | 0.39 | 0.38 | 93 | 1015.0 |
| 20260506213234 | 52 | 290 | 0.0 | 0.9 | 0.02 | 0.39 | 0.38 | 93 | 1015.0 |
| 20260506213115 | 52 | 265 | 0.0 | 0.0 | 0.02 | 0.39 | 0.38 | 93 | 1015.0 |
| 20260506212815 | 52 | 265 | 0.0 | 0.0 | 0.02 | 0.39 | 0.38 | 93 | 1015.0 |
| 20260506212716 | 52 | 265 | 0.0 | 0.0 | 0.02 | 0.39 | 0.38 | 92 | 1015.0 |
| 20260506212344 | 52 | 265 | 0.0 | 0.0 | 0.02 | 0.39 | 0.38 | 92 | 1015.0 |
| 20260506212327 | 52 | 265 | 0.0 | 0.0 | 0.02 | 0.39 | 0.38 | 92 | 1015.0 |
| 20260506212220 | 52 | 265 | 0.0 | 0.0 | 0.02 | 0.40 | 0.38 | 92 | 1015.1 |
| 20260506212128 | 52 | 265 | 0.0 | 0.0 | 0.02 | 0.40 | 0.38 | 92 | 1015.0 |
| 20260506212034 | 53 | 265 | 0.0 | 0.0 | 0.02 | 0.40 | 0.38 | 92 | 1015.1 |
| 20260506211709 | 53 | 265 | 0.0 | 0.0 | 0.02 | 0.40 | 0.38 | 92 | 1015.0 |
| 20260506211636 | 53 | 265 | 0.0 | 0.0 | 0.02 | 0.40 | 0.38 | 92 | 1015.0 |
| 20260506211230 | 53 | 265 | 0.0 | 0.0 | 0.02 | 0.39 | 0.37 | 92 | 1015.0 |
| 20260506211142 | 53 | 265 | 0.0 | 0.0 | 0.02 | 0.39 | 0.37 | 92 | 1014.9 |
| 20260506211103 | 53 | 265 | 0.0 | 0.0 | 0.02 | 0.39 | 0.37 | 92 | 1014.9 |
| 20260506210747 | 53 | 265 | 0.0 | 0.0 | 0.02 | 0.39 | 0.37 | 92 | 1015.0 |
| 20260506210705 | 53 | 265 | 0.0 | 0.0 | 0.02 | 0.39 | 0.37 | 91 | 1014.9 |
| 20260506210351 | 53 | 265 | 0.0 | 0.0 | 0.02 | 0.39 | 0.37 | 91 | 1014.8 |
| 20260506210023 | 53 | 265 | 0.0 | 0.0 | 0.02 | 0.39 | 0.37 | 91 | 1014.8 |
| 20260506210000 | 53 | 265 | 0.0 | 0.0 | 0.02 | 0.39 | 0.37 | 91 | 1014.9 |
| 20260506205921 | 53 | 265 | 0.0 | 0.0 | 0.02 | 0.39 | 0.37 | 91 | 1014.8 |
| 20260506205833 | 53 | 265 | 0.0 | 0.0 | 0.02 | 0.39 | 0.37 | 91 | 1014.7 |
| 20260506205522 | 54 | 265 | 0.0 | 0.0 | 0.02 | 0.40 | 0.37 | 90 | 1014.8 |
| 20260506205428 | 54 | 265 | 0.0 | 0.0 | 0.02 | 0.40 | 0.37 | 91 | 1014.7 |
| 20260506205052 | 54 | 265 | 0.0 | 0.0 | 0.02 | 0.39 | 0.37 | 90 | 1014.7 |
| 20260506204135 | 54 | 265 | 0.0 | 1.7 | 0.02 | 0.39 | 0.36 | 90 | 1014.7 |
| 20260506204043 | 54 | 265 | 0.0 | 1.7 | 0.02 | 0.39 | 0.36 | 90 | 1014.7 |
| 20260506203954 | 54 | 265 | 0.0 | 1.7 | 0.02 | 0.39 | 0.36 | 90 | 1014.6 |
| 20260506203932 | 54 | 265 | 0.0 | 1.7 | 0.02 | 0.39 | 0.36 | 90 | 1014.6 |
| 20260506203855 | 54 | 265 | 0.0 | 1.7 | 0.02 | 0.39 | 0.36 | 90 | 1014.5 |
| 20260506203754 | 55 | 265 | 0.9 | 1.7 | 0.02 | 0.39 | 0.36 | 90 | 1014.5 |
| 20260506203656 | 55 | 263 | 0.9 | 1.7 | 0.02 | 0.39 | 0.36 | 90 | 1014.5 |
| 20260506203627 | 55 | 251 | 0.9 | 1.7 | 0.02 | 0.39 | 0.36 | 90 | 1014.5 |
| 20260506203505 | 55 | 246 | 0.0 | 1.7 | 0.02 | 0.39 | 0.36 | 89 | 1014.6 |
| 20260506203342 | 55 | 261 | 0.9 | 1.7 | 0.02 | 0.40 | 0.36 | 89 | 1014.5 |
| 20260506203309 | 55 | 264 | 0.9 | 1.7 | 0.02 | 0.40 | 0.36 | 89 | 1014.5 |
| 20260506203203 | 55 | 267 | 0.9 | 1.7 | 0.02 | 0.40 | 0.36 | 89 | 1014.5 |
| 20260506203046 | 55 | 255 | 0.0 | 0.9 | 0.02 | 0.40 | 0.36 | 89 | 1014.5 |
| 20260506202950 | 55 | 255 | 0.0 | 0.9 | 0.02 | 0.40 | 0.36 | 89 | 1014.4 |
| 20260506202935 | 55 | 255 | 0.0 | 0.9 | 0.02 | 0.40 | 0.36 | 89 | 1014.4 |
| 20260506202809 | 55 | 255 | 0.0 | 0.9 | 0.02 | 0.39 | 0.35 | 89 | 1014.4 |
| 20260506202725 | 55 | 255 | 0.0 | 2.6 | 0.02 | 0.39 | 0.35 | 88 | 1014.4 |
| 20260506202113 | 56 | 255 | 0.0 | 3.5 | 0.02 | 0.39 | 0.35 | 88 | 1014.3 |
| 20260506202038 | 56 | 255 | 0.0 | 3.5 | 0.02 | 0.39 | 0.35 | 88 | 1014.3 |
| 20260506202005 | 56 | 255 | 0.0 | 3.5 | 0.02 | 0.39 | 0.35 | 87 | 1014.3 |
| 20260506201837 | 56 | 253 | 1.7 | 3.5 | 0.02 | 0.39 | 0.35 | 87 | 1014.3 |
| 20260506201420 | 56 | 263 | 1.7 | 3.5 | 0.02 | 0.39 | 0.35 | 87 | 1014.2 |
| 20260506201256 | 56 | 273 | 1.7 | 3.5 | 0.02 | 0.39 | 0.35 | 87 | 1014.1 |
| 20260506201105 | 56 | 265 | 0.9 | 3.5 | 0.02 | 0.39 | 0.35 | 86 | 1014.2 |
| 20260506200950 | 56 | 268 | 1.7 | 3.5 | 0.02 | 0.39 | 0.35 | 86 | 1014.2 |
| 20260506200530 | 56 | 288 | 1.7 | 2.6 | 0.02 | 0.40 | 0.35 | 86 | 1014.1 |
| 20260506200349 | 56 | 268 | 0.0 | 3.5 | 0.02 | 0.40 | 0.35 | 86 | 1014.2 |
| 20260506200015 | 56 | 263 | 0.9 | 3.5 | 0.02 | 0.39 | 0.35 | 85 | 1014.1 |
| 20260506195845 | 56 | 257 | 0.9 | 4.3 | 0.02 | 0.39 | 0.35 | 85 | 1014.2 |
| 20260506195741 | 56 | 269 | 1.7 | 5.2 | 0.02 | 0.39 | 0.35 | 85 | 1014.1 |
| 20260506194702 | 56 | 286 | 2.6 | 5.2 | 0.02 | 0.39 | 0.35 | 84 | 1014.0 |
| 20260506194532 | 57 | 281 | 2.6 | 5.2 | 0.02 | 0.39 | 0.35 | 84 | 1014.1 |
| 20260506194344 | 57 | 286 | 2.6 | 6.1 | 0.02 | 0.39 | 0.35 | 84 | 1014.0 |
| 20260506194231 | 57 | 283 | 2.6 | 6.1 | 0.02 | 0.39 | 0.35 | 84 | 1014.0 |
| 20260506194153 | 57 | 282 | 2.6 | 6.1 | 0.02 | 0.39 | 0.35 | 84 | 1014.0 |
| 20260506194005 | 57 | 252 | 2.6 | 6.1 | 0.02 | 0.39 | 0.35 | 84 | 1014.0 |
| 20260506193826 | 57 | 282 | 2.6 | 6.1 | 0.02 | 0.39 | 0.35 | 83 | 1014.0 |
| 20260506193809 | 57 | 278 | 3.5 | 6.1 | 0.02 | 0.39 | 0.35 | 83 | 1014.0 |
| 20260506193629 | 57 | 281 | 3.5 | 6.1 | 0.02 | 0.40 | 0.35 | 83 | 1014.0 |
| 20260506193439 | 57 | 274 | 3.5 | 6.1 | 0.02 | 0.40 | 0.35 | 83 | 1014.0 |
| 20260506193332 | 57 | 267 | 3.5 | 6.1 | 0.02 | 0.40 | 0.35 | 83 | 1014.0 |
| 20260506193247 | 57 | 263 | 3.5 | 6.1 | 0.02 | 0.40 | 0.35 | 83 | 1013.9 |
| 20260506193050 | 58 | 262 | 2.6 | 6.1 | 0.02 | 0.39 | 0.34 | 83 | 1013.9 |
| 20260506192912 | 58 | 269 | 2.6 | 6.1 | 0.02 | 0.39 | 0.34 | 82 | 1013.9 |
| 20260506192854 | 58 | 269 | 2.6 | 7.0 | 0.02 | 0.39 | 0.34 | 82 | 1013.9 |
| 20260506192708 | 58 | 244 | 3.5 | 7.0 | 0.02 | 0.39 | 0.34 | 82 | 1013.9 |
| 20260506192518 | 58 | 273 | 3.5 | 7.0 | 0.02 | 0.39 | 0.34 | 82 | 1013.9 |
| 20260506192430 | 58 | 270 | 3.5 | 7.0 | 0.02 | 0.39 | 0.34 | 82 | 1013.9 |
| 20260506192338 | 58 | 259 | 3.5 | 7.0 | 0.02 | 0.39 | 0.34 | 81 | 1013.9 |
| 20260506192154 | 58 | 270 | 3.5 | 7.0 | 0.02 | 0.39 | 0.34 | 81 | 1013.9 |
| 20260506191958 | 58 | 273 | 2.6 | 8.7 | 0.02 | 0.39 | 0.34 | 81 | 1014.0 |
| 20260506191813 | 58 | 262 | 3.5 | 8.7 | 0.02 | 0.39 | 0.34 | 80 | 1014.0 |
| 20260506191640 | 58 | 252 | 3.5 | 8.7 | 0.02 | 0.39 | 0.34 | 80 | 1013.9 |
| 20260506191206 | 59 | 285 | 5.2 | 8.7 | 0.02 | 0.40 | 0.34 | 79 | 1013.9 |
| 20260506191010 | 59 | 252 | 1.7 | 7.8 | 0.02 | 0.39 | 0.33 | 79 | 1013.8 |
| 20260506190829 | 59 | 235 | 3.5 | 7.8 | 0.02 | 0.39 | 0.33 | 78 | 1013.7 |
| 20260506190635 | 59 | 215 | 4.3 | 8.7 | 0.02 | 0.39 | 0.33 | 78 | 1013.7 |
| 20260506190313 | 59 | 271 | 5.2 | 8.7 | 0.02 | 0.39 | 0.33 | 77 | 1013.7 |
| 20260506190118 | 59 | 286 | 4.3 | 8.7 | 0.02 | 0.39 | 0.33 | 77 | 1013.7 |
| 20260506185928 | 59 | 279 | 4.3 | 8.7 | 0.02 | 0.39 | 0.33 | 76 | 1013.7 |
| 20260506185742 | 59 | 256 | 5.2 | 8.7 | 0.02 | 0.39 | 0.33 | 76 | 1013.7 |
| 20260506185610 | 60 | 265 | 5.2 | 7.8 | 0.02 | 0.39 | 0.33 | 76 | 1013.7 |
| 20260506185519 | 60 | 267 | 4.3 | 7.8 | 0.02 | 0.39 | 0.33 | 76 | 1013.6 |
| 20260506185055 | 60 | 273 | 4.3 | 7.8 | 0.02 | 0.39 | 0.33 | 76 | 1013.6 |
| 20260506184907 | 60 | 257 | 4.3 | 6.1 | 0.02 | 0.39 | 0.33 | 76 | 1013.6 |
| 20260506184857 | 60 | 271 | 4.3 | 6.1 | 0.02 | 0.39 | 0.33 | 76 | 1013.6 |
| 20260506184724 | 60 | 256 | 3.5 | 6.1 | 0.02 | 0.39 | 0.33 | 77 | 1013.5 |
| 20260506184535 | 60 | 259 | 2.6 | 7.0 | 0.02 | 0.39 | 0.32 | 77 | 1013.5 |
| 20260506184437 | 60 | 265 | 3.5 | 7.0 | 0.02 | 0.39 | 0.32 | 76 | 1013.5 |
| 20260506184343 | 60 | 265 | 3.5 | 7.0 | 0.02 | 0.39 | 0.32 | 76 | 1013.4 |
| 20260506183922 | 60 | 253 | 2.6 | 7.0 | 0.02 | 0.39 | 0.32 | 77 | 1013.4 |
| 20260506183754 | 60 | 315 | 3.5 | 7.8 | 0.02 | 0.39 | 0.32 | 76 | 1013.4 |
| 20260506183613 | 60 | 257 | 2.6 | 7.8 | 0.02 | 0.39 | 0.32 | 77 | 1013.4 |
| 20260506183121 | 60 | 269 | 5.2 | 7.8 | 0.02 | 0.39 | 0.32 | 75 | 1013.4 |
| 20260506182946 | 60 | 281 | 4.3 | 8.7 | 0.02 | 0.39 | 0.32 | 75 | 1013.4 |
| 20260506182927 | 60 | 294 | 4.3 | 8.7 | 0.02 | 0.39 | 0.32 | 75 | 1013.4 |
| 20260506182755 | 60 | 273 | 4.3 | 8.7 | 0.02 | 0.39 | 0.32 | 75 | 1013.3 |
| 20260506182614 | 60 | 304 | 3.5 | 11.3 | 0.02 | 0.39 | 0.31 | 76 | 1013.4 |
| 20260506182151 | 60 | 278 | 3.5 | 11.3 | 0.02 | 0.39 | 0.31 | 75 | 1013.3 |
| 20260506182015 | 60 | 300 | 5.2 | 13.0 | 0.02 | 0.39 | 0.31 | 74 | 1013.4 |
| 20260506181948 | 60 | 313 | 5.2 | 13.0 | 0.02 | 0.39 | 0.31 | 74 | 1013.3 |
| 20260506181532 | 60 | 263 | 7.8 | 13.0 | 0.02 | 0.39 | 0.31 | 74 | 1013.4 |
| 20260506181135 | 60 | 271 | 7.0 | 13.0 | 0.02 | 0.39 | 0.31 | 74 | 1013.3 |
| 20260506180622 | 60 | 277 | 7.8 | 11.3 | 0.02 | 0.39 | 0.31 | 73 | 1013.3 |
| 20260506180555 | 60 | 293 | 7.8 | 11.3 | 0.02 | 0.39 | 0.31 | 73 | 1013.3 |
| 20260506180354 | 60 | 243 | 7.0 | 12.2 | 0.02 | 0.39 | 0.31 | 73 | 1013.3 |
| 20260506180219 | 61 | 289 | 5.2 | 12.2 | 0.02 | 0.39 | 0.31 | 74 | 1013.2 |
| 20260506180150 | 61 | 296 | 5.2 | 12.2 | 0.02 | 0.39 | 0.31 | 74 | 1013.3 |
| 20260506180028 | 61 | 265 | 5.2 | 12.2 | 0.02 | 0.39 | 0.31 | 75 | 1013.3 |
| 20260506175843 | 61 | 279 | 6.1 | 12.2 | 0.02 | 0.39 | 0.31 | 74 | 1013.2 |
| 20260506175721 | 61 | 292 | 9.6 | 12.2 | 0.02 | 0.39 | 0.31 | 73 | 1013.3 |
| 20260506175647 | 61 | 279 | 9.6 | 12.2 | 0.02 | 0.39 | 0.31 | 72 | 1013.3 |
| 20260506175505 | 61 | 258 | 4.3 | 10.4 | 0.02 | 0.39 | 0.31 | 75 | 1013.3 |
| 20260506175316 | 61 | 306 | 7.0 | 10.4 | 0.02 | 0.39 | 0.31 | 74 | 1013.2 |
| 20260506175243 | 61 | 321 | 7.8 | 10.4 | 0.02 | 0.39 | 0.31 | 73 | 1013.3 |
| 20260506175118 | 61 | 259 | 7.8 | 10.4 | 0.02 | 0.39 | 0.31 | 75 | 1013.3 |
| 20260506174934 | 61 | 261 | 3.5 | 10.4 | 0.02 | 0.39 | 0.31 | 75 | 1013.3 |
| 20260506174816 | 61 | 293 | 5.2 | 9.6 | 0.02 | 0.39 | 0.31 | 75 | 1013.3 |
| 20260506174744 | 61 | 312 | 5.2 | 9.6 | 0.02 | 0.39 | 0.31 | 75 | 1013.2 |
| 20260506174607 | 61 | 298 | 5.2 | 9.6 | 0.02 | 0.39 | 0.31 | 75 | 1013.3 |
| 20260506174427 | 61 | 300 | 6.1 | 9.6 | 0.02 | 0.39 | 0.31 | 75 | 1013.3 |
| 20260506174358 | 61 | 287 | 4.3 | 9.6 | 0.02 | 0.39 | 0.31 | 75 | 1013.3 |
| 20260506174238 | 60 | 295 | 3.5 | 9.6 | 0.02 | 0.39 | 0.31 | 76 | 1013.3 |
| 20260506174058 | 60 | 253 | 3.5 | 9.6 | 0.02 | 0.39 | 0.30 | 76 | 1013.2 |
| 20260506173939 | 60 | 278 | 5.2 | 9.6 | 0.02 | 0.39 | 0.30 | 76 | 1013.3 |
| 20260506173902 | 60 | 288 | 5.2 | 9.6 | 0.02 | 0.39 | 0.30 | 76 | 1013.3 |
| 20260506173717 | 60 | 315 | 6.1 | 9.6 | 0.02 | 0.39 | 0.30 | 76 | 1013.3 |
| 20260506172712 | 59 | 270 | 3.5 | 12.2 | 0.02 | 0.39 | 0.30 | 77 | 1013.2 |
| 20260506172235 | 59 | 286 | 5.2 | 12.2 | 0.02 | 0.39 | 0.30 | 77 | 1013.1 |
| 20260506172045 | 59 | 303 | 7.8 | 12.2 | 0.02 | 0.39 | 0.30 | 77 | 1013.2 |
| 20260506171928 | 59 | 288 | 5.2 | 12.2 | 0.02 | 0.39 | 0.30 | 78 | 1013.1 |
| 20260506171853 | 59 | 279 | 5.2 | 9.6 | 0.02 | 0.39 | 0.30 | 79 | 1013.2 |
| 20260506171706 | 59 | 292 | 3.5 | 7.8 | 0.02 | 0.39 | 0.29 | 80 | 1013.3 |
| 20260506171526 | 59 | 337 | 4.3 | 8.7 | 0.02 | 0.39 | 0.29 | 80 | 1013.1 |
| 20260506171449 | 59 | 288 | 3.5 | 8.7 | 0.02 | 0.39 | 0.29 | 81 | 1013.0 |
| 20260506171050 | 59 | 295 | 5.2 | 9.6 | 0.02 | 0.39 | 0.29 | 80 | 1013.1 |
| 20260506170929 | 59 | 269 | 4.3 | 9.6 | 0.02 | 0.39 | 0.29 | 80 | 1013.1 |
| 20260506170857 | 59 | 299 | 4.3 | 9.6 | 0.02 | 0.39 | 0.29 | 80 | 1013.0 |
| 20260506170450 | 59 | 298 | 2.6 | 9.6 | 0.02 | 0.39 | 0.29 | 81 | 1013.0 |
| 20260506165654 | 60 | 289 | 2.6 | 10.4 | 0.02 | 0.39 | 0.28 | 80 | 1013.0 |
| 20260506165521 | 60 | 313 | 4.3 | 10.4 | 0.02 | 0.39 | 0.28 | 79 | 1013.1 |
| 20260506165500 | 60 | 312 | 6.1 | 10.4 | 0.02 | 0.39 | 0.28 | 79 | 1013.0 |
| 20260506165325 | 60 | 314 | 6.1 | 10.4 | 0.02 | 0.39 | 0.28 | 79 | 1013.0 |
| 20260506165138 | 60 | 315 | 6.1 | 10.4 | 0.02 | 0.39 | 0.28 | 78 | 1012.9 |
| 20260506165029 | 60 | 277 | 5.2 | 10.4 | 0.02 | 0.39 | 0.28 | 78 | 1012.9 |
| 20260506164940 | 60 | 290 | 5.2 | 10.4 | 0.02 | 0.39 | 0.28 | 78 | 1013.0 |
| 20260506164528 | 60 | 279 | 7.0 | 10.4 | 0.02 | 0.39 | 0.28 | 77 | 1012.9 |
| 20260506164511 | 60 | 277 | 7.8 | 10.4 | 0.02 | 0.39 | 0.28 | 77 | 1012.9 |
| 20260506164338 | 61 | 302 | 5.2 | 9.6 | 0.02 | 0.39 | 0.28 | 78 | 1012.9 |
| 20260506163922 | 60 | 311 | 3.5 | 9.6 | 0.03 | 0.39 | 0.28 | 80 | 1012.9 |
| 20260506163737 | 60 | 318 | 6.1 | 10.4 | 0.02 | 0.39 | 0.28 | 79 | 1012.9 |
| 20260506163224 | 60 | 291 | 6.1 | 10.4 | 0.02 | 0.39 | 0.28 | 78 | 1012.9 |
| 20260506163032 | 60 | 271 | 5.2 | 10.4 | 0.02 | 0.39 | 0.28 | 78 | 1012.9 |
| 20260506162935 | 60 | 289 | 4.3 | 12.2 | 0.02 | 0.39 | 0.28 | 77 | 1012.9 |
| 20260506162842 | 60 | 302 | 4.3 | 12.2 | 0.02 | 0.39 | 0.28 | 77 | 1012.9 |
| 20260506162709 | 60 | 309 | 5.2 | 12.2 | 0.02 | 0.39 | 0.28 | 77 | 1012.8 |
| 20260506162236 | 60 | 261 | 7.8 | 13.9 | 0.03 | 0.39 | 0.28 | 77 | 1012.8 |
| 20260506162054 | 60 | 304 | 7.0 | 15.6 | 0.03 | 0.39 | 0.28 | 77 | 1012.8 |
| 20260506161956 | 60 | 298 | 7.8 | 15.6 | 0.03 | 0.39 | 0.28 | 77 | 1012.8 |
| 20260506161530 | 60 | 288 | 7.8 | 15.6 | 0.02 | 0.39 | 0.27 | 76 | 1012.8 |
| 20260506161340 | 60 | 276 | 8.7 | 15.6 | 0.02 | 0.39 | 0.27 | 77 | 1012.9 |
| 20260506161146 | 60 | 273 | 9.6 | 15.6 | 0.02 | 0.39 | 0.27 | 76 | 1012.8 |
| 20260506161006 | 60 | 257 | 7.8 | 12.2 | 0.02 | 0.39 | 0.27 | 78 | 1012.9 |
| 20260506160910 | 60 | 295 | 7.8 | 12.2 | 0.02 | 0.39 | 0.27 | 77 | 1012.8 |
| 20260506160813 | 60 | 258 | 7.8 | 12.2 | 0.02 | 0.39 | 0.27 | 77 | 1012.8 |
| 20260506160629 | 60 | 238 | 7.0 | 13.9 | 0.02 | 0.39 | 0.27 | 77 | 1012.8 |
| 20260506160444 | 60 | 262 | 8.7 | 15.6 | 0.03 | 0.39 | 0.27 | 77 | 1012.8 |
| 20260506160051 | 61 | 283 | 7.0 | 15.6 | 0.03 | 0.39 | 0.27 | 78 | 1012.9 |
| 20260506155333 | 61 | 249 | 9.6 | 13.9 | 0.02 | 0.39 | 0.26 | 78 | 1012.8 |
| 20260506155317 | 61 | 281 | 9.6 | 13.9 | 0.02 | 0.39 | 0.26 | 78 | 1012.8 |
| 20260506155127 | 60 | 290 | 9.6 | 13.9 | 0.02 | 0.39 | 0.26 | 78 | 1012.9 |
| 20260506154943 | 60 | 261 | 7.0 | 13.9 | 0.02 | 0.39 | 0.26 | 79 | 1012.8 |
| 20260506154855 | 60 | 263 | 7.8 | 13.9 | 0.02 | 0.39 | 0.26 | 79 | 1012.9 |
| 20260506154754 | 60 | 269 | 9.6 | 13.9 | 0.02 | 0.39 | 0.26 | 79 | 1012.9 |
| 20260506154610 | 60 | 265 | 7.0 | 13.9 | 0.03 | 0.39 | 0.26 | 79 | 1012.8 |
| 20260506154444 | 60 | 252 | 8.7 | 13.9 | 0.03 | 0.39 | 0.26 | 79 | 1012.8 |
| 20260506154425 | 60 | 256 | 8.7 | 13.9 | 0.03 | 0.39 | 0.26 | 79 | 1012.8 |
| 20260506154034 | 60 | 267 | 7.8 | 14.8 | 0.03 | 0.39 | 0.26 | 78 | 1012.8 |
| 20260506153951 | 60 | 267 | 7.8 | 14.8 | 0.02 | 0.39 | 0.25 | 78 | 1012.8 |
| 20260506153558 | 61 | 287 | 9.6 | 17.4 | 0.02 | 0.39 | 0.25 | 77 | 1012.8 |
| 20260506153429 | 61 | 271 | 9.6 | 17.4 | 0.02 | 0.39 | 0.25 | 77 | 1012.8 |
| 20260506153404 | 61 | 250 | 9.6 | 17.4 | 0.02 | 0.39 | 0.25 | 77 | 1012.8 |
| 20260506153222 | 61 | 265 | 7.0 | 17.4 | 0.02 | 0.39 | 0.25 | 77 | 1012.8 |
| 20260506152819 | 61 | 293 | 7.0 | 12.2 | 0.03 | 0.39 | 0.25 | 78 | 1012.9 |
| 20260506152641 | 61 | 304 | 8.7 | 12.2 | 0.03 | 0.39 | 0.25 | 78 | 1012.9 |
| 20260506152406 | 61 | 272 | 8.7 | 12.2 | 0.03 | 0.39 | 0.25 | 79 | 1012.8 |
| 20260506152223 | 61 | 290 | 8.7 | 12.2 | 0.02 | 0.39 | 0.24 | 79 | 1012.9 |
| 20260506151708 | 60 | 235 | 7.0 | 13.0 | 0.02 | 0.39 | 0.24 | 80 | 1012.8 |
| 20260506151522 | 60 | 244 | 7.0 | 13.0 | 0.02 | 0.39 | 0.24 | 79 | 1012.8 |
| 20260506151359 | 60 | 285 | 7.8 | 13.0 | 0.02 | 0.39 | 0.24 | 79 | 1012.9 |
| 20260506151331 | 60 | 296 | 7.8 | 13.0 | 0.02 | 0.39 | 0.24 | 79 | 1012.8 |
| 20260506151151 | 60 | 296 | 9.6 | 13.0 | 0.03 | 0.39 | 0.24 | 78 | 1012.8 |
| 20260506151006 | 60 | 281 | 7.8 | 12.2 | 0.03 | 0.39 | 0.24 | 79 | 1012.8 |
| 20260506150941 | 60 | 277 | 7.0 | 12.2 | 0.03 | 0.39 | 0.24 | 79 | 1012.8 |
| 20260506150817 | 60 | 298 | 7.0 | 12.2 | 0.03 | 0.39 | 0.24 | 80 | 1012.8 |
| 20260506150641 | 60 | 260 | 7.0 | 12.2 | 0.03 | 0.39 | 0.24 | 80 | 1012.8 |
| 20260506150221 | 60 | 281 | 8.7 | 12.2 | 0.02 | 0.39 | 0.24 | 80 | 1012.8 |
| 20260506145721 | 60 | 293 | 5.2 | 9.6 | 0.02 | 0.39 | 0.24 | 82 | 1012.9 |
| 20260506145541 | 60 | 242 | 6.1 | 9.6 | 0.02 | 0.39 | 0.24 | 82 | 1012.9 |
| 20260506145424 | 60 | 246 | 6.1 | 9.6 | 0.03 | 0.39 | 0.24 | 81 | 1012.9 |
| 20260506145351 | 60 | 288 | 6.1 | 10.4 | 0.03 | 0.39 | 0.24 | 81 | 1012.9 |
| 20260506145215 | 60 | 232 | 5.2 | 11.3 | 0.03 | 0.39 | 0.24 | 82 | 1012.9 |
| 20260506145037 | 60 | 284 | 4.3 | 13.0 | 0.03 | 0.39 | 0.24 | 83 | 1012.9 |
| 20260506145008 | 60 | 262 | 4.3 | 13.0 | 0.03 | 0.39 | 0.24 | 83 | 1012.9 |
| 20260506144845 | 60 | 256 | 4.3 | 13.0 | 0.03 | 0.39 | 0.24 | 83 | 1012.9 |
| 20260506144454 | 60 | 257 | 9.6 | 13.0 | 0.02 | 0.39 | 0.23 | 81 | 1012.8 |
| 20260506144418 | 60 | 289 | 9.6 | 13.9 | 0.02 | 0.39 | 0.23 | 81 | 1012.8 |
| 20260506143959 | 60 | 269 | 7.0 | 13.9 | 0.02 | 0.39 | 0.23 | 83 | 1012.9 |
| 20260506143933 | 60 | 263 | 7.0 | 13.9 | 0.02 | 0.39 | 0.23 | 83 | 1012.9 |
| 20260506143808 | 60 | 267 | 7.0 | 13.9 | 0.02 | 0.39 | 0.23 | 82 | 1012.8 |
| 20260506143403 | 60 | 260 | 7.0 | 13.9 | 0.03 | 0.39 | 0.23 | 82 | 1012.9 |
| 20260506143322 | 60 | 281 | 7.0 | 13.0 | 0.03 | 0.39 | 0.23 | 83 | 1012.8 |
| 20260506143140 | 60 | 275 | 7.8 | 13.0 | 0.03 | 0.39 | 0.23 | 84 | 1012.8 |
| 20260506142957 | 60 | 283 | 6.1 | 12.2 | 0.03 | 0.39 | 0.23 | 87 | 1012.8 |
| 20260506142935 | 60 | 265 | 5.2 | 12.2 | 0.03 | 0.39 | 0.23 | 87 | 1012.8 |
| 20260506142759 | 60 | 255 | 5.2 | 12.2 | 0.02 | 0.39 | 0.22 | 87 | 1012.8 |
| 20260506142341 | 60 | 234 | 8.7 | 12.2 | 0.02 | 0.39 | 0.22 | 86 | 1012.8 |
| 20260506141440 | 60 | 283 | 7.0 | 12.2 | 0.03 | 0.39 | 0.22 | 87 | 1012.7 |
| 20260506141336 | 59 | 254 | 7.8 | 12.2 | 0.03 | 0.39 | 0.22 | 87 | 1012.8 |
| 20260506141239 | 59 | 263 | 7.8 | 12.2 | 0.03 | 0.39 | 0.22 | 89 | 1012.7 |
| 20260506141056 | 59 | 244 | 5.2 | 9.6 | 0.02 | 0.39 | 0.21 | 90 | 1012.8 |
| 20260506140904 | 59 | 234 | 7.0 | 9.6 | 0.02 | 0.39 | 0.21 | 91 | 1012.8 |
| 20260506140855 | 59 | 237 | 4.3 | 9.6 | 0.02 | 0.39 | 0.21 | 91 | 1012.8 |
| 20260506140703 | 59 | 252 | 2.6 | 7.0 | 0.02 | 0.39 | 0.21 | 91 | 1012.8 |
| 20260506140511 | 58 | 281 | 3.5 | 7.0 | 0.02 | 0.39 | 0.21 | 90 | 1012.7 |
| 20260506140414 | 58 | 231 | 3.5 | 7.0 | 0.02 | 0.39 | 0.21 | 90 | 1012.7 |
| 20260506140319 | 59 | 242 | 4.3 | 9.6 | 0.02 | 0.39 | 0.21 | 90 | 1012.8 |
| 20260506135900 | 59 | 228 | 3.5 | 9.6 | 0.02 | 0.39 | 0.21 | 92 | 1012.8 |
| 20260506135728 | 59 | 246 | 3.5 | 9.6 | 0.02 | 0.39 | 0.21 | 92 | 1012.7 |
| 20260506135545 | 59 | 231 | 5.2 | 9.6 | 0.02 | 0.39 | 0.21 | 92 | 1012.8 |
| 20260506135104 | 58 | 259 | 5.2 | 10.4 | 0.02 | 0.39 | 0.20 | 94 | 1012.8 |
| 20260506134905 | 58 | 281 | 2.6 | 10.4 | 0.02 | 0.39 | 0.20 | 94 | 1012.8 |
| 20260506134733 | 58 | 254 | 4.3 | 10.4 | 0.02 | 0.39 | 0.20 | 94 | 1012.7 |
| 20260506134551 | 58 | 254 | 7.8 | 10.4 | 0.02 | 0.39 | 0.20 | 95 | 1012.7 |
| 20260506134233 | 58 | 261 | 2.6 | 10.4 | 0.02 | 0.39 | 0.20 | 95 | 1012.8 |
| 20260506134047 | 58 | 242 | 3.5 | 10.4 | 0.02 | 0.39 | 0.20 | 95 | 1012.8 |
| 20260506133906 | 57 | 215 | 3.5 | 10.4 | 0.02 | 0.39 | 0.20 | 96 | 1012.6 |
| 20260506133858 | 57 | 215 | 3.5 | 10.4 | 0.02 | 0.39 | 0.20 | 96 | 1012.6 |
| 20260506133717 | 57 | 262 | 2.6 | 10.4 | 0.02 | 0.39 | 0.20 | 95 | 1012.7 |
| 20260506133533 | 57 | 315 | 4.3 | 10.4 | 0.02 | 0.38 | 0.20 | 95 | 1012.7 |
| 20260506133417 | 57 | 286 | 4.3 | 10.4 | 0.02 | 0.39 | 0.20 | 95 | 1012.7 |
| 20260506133336 | 57 | 232 | 3.5 | 10.4 | 0.02 | 0.39 | 0.20 | 95 | 1012.8 |
| 20260506133154 | 57 | 271 | 4.3 | 9.6 | 0.02 | 0.39 | 0.20 | 95 | 1012.7 |
| 20260506132737 | 56 | 234 | 4.3 | 9.6 | 0.02 | 0.39 | 0.20 | 95 | 1012.8 |
| 20260506132235 | 56 | 228 | 3.5 | 7.8 | 0.02 | 0.39 | 0.20 | 95 | 1012.8 |
| 20260506132151 | 56 | 261 | 2.6 | 6.1 | 0.02 | 0.39 | 0.20 | 95 | 1012.9 |
| 20260506132018 | 56 | 245 | 2.6 | 6.1 | 0.02 | 0.39 | 0.20 | 95 | 1012.8 |
| 20260506131602 | 56 | 220 | 3.5 | 6.1 | 0.02 | 0.39 | 0.20 | 95 | 1012.8 |
| 20260506131426 | 56 | 249 | 3.5 | 7.0 | 0.02 | 0.39 | 0.20 | 95 | 1012.8 |
| 20260506131246 | 56 | 229 | 2.6 | 7.0 | 0.02 | 0.38 | 0.20 | 95 | 1012.9 |
| 20260506131130 | 56 | 237 | 2.6 | 7.0 | 0.02 | 0.38 | 0.19 | 95 | 1012.9 |
| 20260506130655 | 56 | 243 | 2.6 | 7.0 | 0.02 | 0.39 | 0.19 | 95 | 1012.8 |
| 20260506130511 | 56 | 211 | 3.5 | 7.0 | 0.02 | 0.39 | 0.19 | 95 | 1012.8 |
| 20260506130442 | 56 | 254 | 3.5 | 7.0 | 0.02 | 0.39 | 0.19 | 95 | 1012.8 |
| 20260506130304 | 56 | 257 | 3.5 | 7.0 | 0.02 | 0.39 | 0.19 | 95 | 1012.8 |
| 20260506130121 | 56 | 249 | 3.5 | 7.0 | 0.02 | 0.39 | 0.19 | 95 | 1012.8 |
| 20260506130000 | 56 | 239 | 4.3 | 7.0 | 0.02 | 0.39 | 0.19 | 95 | 1012.8 |
| 20260506125530 | 56 | 232 | 2.6 | 6.1 | 0.02 | 0.39 | 0.19 | 96 | 1012.8 |
| 20260506125356 | 56 | 281 | 2.6 | 6.1 | 0.02 | 0.39 | 0.19 | 96 | 1012.7 |
| 20260506125322 | 56 | 217 | 2.6 | 6.1 | 0.02 | 0.39 | 0.19 | 96 | 1012.7 |
| 20260506125210 | 56 | 200 | 3.5 | 6.1 | 0.02 | 0.39 | 0.19 | 96 | 1012.7 |
| 20260506125019 | 56 | 242 | 2.6 | 6.1 | 0.02 | 0.39 | 0.19 | 96 | 1012.7 |
| 20260506124622 | 56 | 219 | 1.7 | 6.1 | 0.02 | 0.39 | 0.19 | 97 | 1012.7 |
| 20260506124429 | 56 | 202 | 2.6 | 6.1 | 0.02 | 0.39 | 0.18 | 96 | 1012.7 |
| 20260506124250 | 56 | 286 | 2.6 | 6.1 | 0.02 | 0.39 | 0.18 | 96 | 1012.6 |
| 20260506124217 | 56 | 236 | 2.6 | 8.7 | 0.02 | 0.39 | 0.18 | 96 | 1012.6 |
| 20260506124051 | 56 | 244 | 2.6 | 8.7 | 0.02 | 0.39 | 0.18 | 96 | 1012.6 |
| 20260506123539 | 56 | 235 | 2.6 | 9.6 | 0.02 | 0.39 | 0.18 | 96 | 1012.6 |
| 20260506123506 | 56 | 242 | 2.6 | 9.6 | 0.02 | 0.39 | 0.18 | 96 | 1012.6 |
| 20260506123315 | 56 | 254 | 4.3 | 9.6 | 0.02 | 0.39 | 0.18 | 96 | 1012.6 |
| 20260506123144 | 56 | 250 | 3.5 | 9.6 | 0.02 | 0.39 | 0.18 | 96 | 1012.6 |
| 20260506123107 | 56 | 252 | 3.5 | 9.6 | 0.02 | 0.39 | 0.18 | 96 | 1012.7 |
| 20260506122950 | 56 | 273 | 4.3 | 9.6 | 0.02 | 0.39 | 0.18 | 96 | 1012.7 |
| 20260506122754 | 56 | 306 | 6.1 | 9.6 | 0.02 | 0.39 | 0.18 | 96 | 1012.7 |
| 20260506122641 | 56 | 281 | 5.2 | 8.7 | 0.02 | 0.39 | 0.18 | 96 | 1012.7 |
| 20260506122611 | 56 | 273 | 4.3 | 7.8 | 0.02 | 0.39 | 0.18 | 95 | 1012.8 |
| 20260506122413 | 56 | 254 | 0.9 | 6.1 | 0.02 | 0.39 | 0.18 | 95 | 1012.6 |
| 20260506122247 | 56 | 239 | 0.9 | 5.2 | 0.02 | 0.39 | 0.18 | 95 | 1012.4 |
| 20260506122214 | 56 | 190 | 0.9 | 5.2 | 0.02 | 0.39 | 0.17 | 96 | 1012.4 |
| 20260506122124 | 56 | 190 | 0.9 | 5.2 | 0.02 | 0.39 | 0.17 | 96 | 1012.5 |
| 20260506121932 | 56 | 201 | 1.7 | 5.2 | 0.02 | 0.39 | 0.17 | 96 | 1012.5 |
| 20260506121803 | 56 | 279 | 0.0 | 5.2 | 0.02 | 0.39 | 0.17 | 95 | 1012.5 |
| 20260506121439 | 56 | 248 | 2.6 | 7.0 | 0.02 | 0.39 | 0.17 | 95 | 1012.6 |
| 20260506120417 | 56 | 237 | 2.6 | 7.0 | 0.02 | 0.39 | 0.17 | 95 | 1012.6 |
| 20260506120258 | 56 | 267 | 5.2 | 7.0 | 0.02 | 0.39 | 0.17 | 95 | 1012.5 |
| 20260506120113 | 56 | 225 | 3.5 | 9.6 | 0.02 | 0.39 | 0.17 | 95 | 1012.6 |
| 20260506115945 | 56 | 273 | 2.6 | 9.6 | 0.02 | 0.39 | 0.17 | 95 | 1012.7 |
| 20260506115849 | 56 | 252 | 2.6 | 9.6 | 0.02 | 0.39 | 0.17 | 95 | 1012.7 |
| 20260506115749 | 57 | 228 | 3.5 | 9.6 | 0.02 | 0.39 | 0.17 | 95 | 1012.7 |
| 20260506115553 | 57 | 238 | 2.6 | 9.6 | 0.02 | 0.39 | 0.17 | 95 | 1012.6 |
| 20260506115421 | 57 | 246 | 5.2 | 9.6 | 0.02 | 0.39 | 0.17 | 95 | 1012.7 |
| 20260506115218 | 57 | 286 | 2.6 | 7.8 | 0.02 | 0.39 | 0.17 | 96 | 1012.7 |
| 20260506115030 | 56 | 281 | 4.3 | 7.8 | 0.02 | 0.39 | 0.17 | 96 | 1012.6 |
| 20260506114932 | 56 | 243 | 4.3 | 7.8 | 0.02 | 0.39 | 0.17 | 96 | 1012.6 |
| 20260506114825 | 56 | 246 | 3.5 | 7.8 | 0.02 | 0.39 | 0.17 | 96 | 1012.6 |
| 20260506114640 | 56 | 248 | 3.5 | 6.1 | 0.02 | 0.39 | 0.17 | 96 | 1012.6 |
| 20260506114450 | 57 | 236 | 2.6 | 5.2 | 0.02 | 0.39 | 0.17 | 97 | 1012.6 |
| 20260506114301 | 57 | 246 | 2.6 | 6.1 | 0.02 | 0.39 | 0.17 | 97 | 1012.5 |
| 20260506114121 | 57 | 224 | 1.7 | 6.1 | 0.02 | 0.39 | 0.17 | 98 | 1012.5 |
| 20260506114031 | 57 | 248 | 1.7 | 6.1 | 0.02 | 0.39 | 0.17 | 98 | 1012.5 |
| 20260506113937 | 57 | 228 | 1.7 | 6.1 | 0.02 | 0.39 | 0.17 | 98 | 1012.6 |
| 20260506113749 | 56 | 251 | 2.6 | 6.1 | 0.02 | 0.39 | 0.17 | 97 | 1012.5 |
| 20260506113600 | 56 | 234 | 3.5 | 6.1 | 0.02 | 0.39 | 0.17 | 97 | 1012.6 |
| 20260506113011 | 56 | 243 | 3.5 | 6.1 | 0.02 | 0.39 | 0.17 | 97 | 1012.6 |
| 20260506112918 | 56 | 266 | 3.5 | 4.3 | 0.02 | 0.39 | 0.17 | 97 | 1012.6 |
| 20260506112411 | 56 | 223 | 2.6 | 3.5 | 0.02 | 0.39 | 0.17 | 98 | 1012.8 |
| 20260506112232 | 56 | 238 | 2.6 | 6.1 | 0.01 | 0.39 | 0.16 | 98 | 1012.7 |
| 20260506111827 | 56 | 221 | 2.6 | 6.1 | 0.01 | 0.39 | 0.16 | 98 | 1012.7 |
| 20260506111658 | 55 | 232 | 2.6 | 6.1 | 0.02 | 0.39 | 0.16 | 98 | 1012.7 |
| 20260506111608 | 55 | 229 | 1.7 | 6.1 | 0.02 | 0.39 | 0.16 | 97 | 1012.7 |
| 20260506111505 | 55 | 234 | 3.5 | 6.1 | 0.02 | 0.39 | 0.16 | 98 | 1012.7 |
| 20260506111340 | 56 | 240 | 2.6 | 6.1 | 0.02 | 0.39 | 0.16 | 98 | 1012.7 |
| 20260506111148 | 55 | 237 | 2.6 | 6.1 | 0.02 | 0.39 | 0.16 | 98 | 1012.7 |
| 20260506111005 | 55 | 216 | 4.3 | 7.0 | 0.02 | 0.39 | 0.16 | 98 | 1012.7 |
| 20260506110825 | 55 | 236 | 3.5 | 7.0 | 0.02 | 0.39 | 0.16 | 98 | 1012.7 |
| 20260506110730 | 55 | 238 | 2.6 | 7.0 | 0.02 | 0.39 | 0.16 | 98 | 1012.6 |
| 20260506110628 | 55 | 226 | 2.6 | 7.0 | 0.02 | 0.39 | 0.16 | 98 | 1012.7 |
| 20260506110445 | 55 | 252 | 3.5 | 7.0 | 0.02 | 0.39 | 0.16 | 98 | 1012.6 |
| 20260506110255 | 55 | 247 | 1.7 | 7.0 | 0.02 | 0.39 | 0.16 | 98 | 1012.6 |
| 20260506110105 | 55 | 233 | 3.5 | 7.0 | 0.02 | 0.39 | 0.16 | 98 | 1012.7 |
| 20260506105937 | 55 | 242 | 1.7 | 7.0 | 0.02 | 0.39 | 0.16 | 98 | 1012.7 |
| 20260506105843 | 55 | 234 | 3.5 | 7.0 | 0.02 | 0.39 | 0.16 | 97 | 1012.7 |